GFSWCAN_700_rhum_000.txt.gz
RH
10 7 6 6 5 3 14 32 42 41 40 50 14 18 83 84 80 91 98 98 98 97 95 98 88 98 100 97 99 98 100 96 100 99 99 91 83 85 86 76 77 82 84 88 97 92 73 68 70 71 57 49 64 67
10 7 6 7 6 4 4 39 43 54 47 50 34 13 60 100 89 88 84 97 96 98 94 91 95 95 90 95 97 99 98 100 99 98 97 95 99 97 85 75 75 80 76 80 75 69 74 70 69 65 57 54 56 66
11 8 7 7 8 6 5 12 33 46 45 64 40 22 28 97 100 97 98 100 100 98 96 90 88 90 92 98 98 100 94 98 98 99 99 95 98 93 91 79 73 76 81 82 72 65 70 70 66 52 56 53 59 64
11 8 7 7 8 9 6 13 27 36 48 50 43 31 18 83 98 100 100 99 99 97 98 92 81 99 97 94 97 91 93 100 98 99 99 100 100 87 87 86 80 76 84 79 78 79 71 66 67 58 59 58 54 60
12 8 7 7 9 11 12 9 12 8 12 39 47 28 17 56 97 100 100 99 100 90 94 90 86 89 94 100 100 83 92 99 98 99 99 99 98 99 95 84 70 65 67 80 78 81 72 67 67 62 66 65 62 59
13 9 7 7 8 11 14 11 10 15 13 13 20 39 14 29 90 87 99 98 97 100 94 90 95 82 84 93 90 82 98 98 98 98 98 100 92 93 88 90 70 65 66 76 77 79 72 70 67 66 66 67 66 62
14 10 8 7 8 9 13 16 8 11 12 13 20 27 14 23 82 88 100 97 100 99 92 88 79 76 82 89 80 89 100 99 99 98 99 96 90 97 93 80 71 69 71 73 75 76 74 72 69 68 69 72 72 72
14 11 8 7 7 8 12 15 9 10 11 13 31 24 18 20 75 95 100 100 96 98 98 90 86 71 74 92 90 92 100 100 99 98 98 100 99 99 97 69 66 72 80 78 76 74 76 74 71 71 72 73 75 75
15 12 9 8 7 8 10 12 8 12 16 29 52 33 27 24 71 99 100 99 100 100 97 88 82 70 63 99 92 97 99 98 99 99 95 99 99 95 72 66 64 70 68 72 75 72 75 69 70 71 71 69 81 93
17 13 10 8 7 8 9 7 6 11 38 45 52 47 38 28 86 98 99 96 99 99 100 94 79 76 65 87 99 93 99 94 100 100 99 99 83 63 71 64 66 62 60 66 70 70 74 69 70 76 66 74 81 82
18 14 12 9 8 8 8 3 5 11 50 54 80 91 94 74 97 98 98 98 98 99 96 87 68 69 71 75 96 87 96 88 99 95 99 92 63 56 61 63 54 51 50 54 71 75 70 67 61 62 68 76 81 88
19 16 15 11 8 7 8 2 4 27 65 58 75 96 71 92 98 98 98 98 99 80 78 65 69 78 74 78 98 97 85 88 87 90 90 70 39 48 55 50 46 38 40 42 43 48 50 62 78 83 84 85 89 91
20 19 18 13 9 7 8 3 4 42 58 69 92 96 94 96 97 97 97 100 99 90 75 61 61 77 78 86 93 88 92 90 88 82 68 49 47 40 53 46 46 49 50 48 48 50 52 66 80 88 88 92 94 98
22 23 20 16 11 8 7 6 1 27 55 72 88 90 96 97 97 98 98 98 99 82 62 68 68 79 87 86 93 84 84 77 78 73 44 38 40 46 48 45 42 43 47 57 62 63 63 62 76 85 92 96 98 96
25 27 23 18 14 10 8 7 0 19 48 65 81 93 94 95 95 93 93 96 93 76 62 72 81 94 100 97 85 81 79 72 63 40 33 27 27 31 38 47 46 44 45 51 69 77 76 72 82 88 90 95 94 91
29 30 26 22 18 14 10 8 0 11 36 48 71 89 90 86 91 88 91 97 98 100 99 100 100 100 91 88 91 74 74 52 36 29 31 32 31 28 26 32 42 49 52 65 83 93 90 84 87 92 95 88 90 89
33 32 33 28 21 18 13 9 3 5 44 53 48 63 78 85 90 93 90 91 97 99 100 100 99 93 90 91 86 73 59 34 37 39 37 36 38 39 35 27 25 35 46 60 86 98 95 93 96 98 94 80 84 70
41 34 36 30 24 21 17 12 8 3 11 26 50 58 64 67 71 78 85 96 96 100 99 99 98 96 85 82 65 52 55 44 47 51 45 41 38 37 42 34 24 31 43 66 96 99 98 98 98 97 92 90 76 35
52 41 39 32 26 24 16 13 12 8 2 5 15 25 41 52 61 64 71 90 96 98 100 99 98 90 83 80 64 57 53 50 52 50 47 47 45 42 42 39 25 33 49 81 98 96 98 99 98 96 90 72 31 22
58 49 46 39 27 22 18 13 14 9 7 7 4 3 7 25 42 52 58 70 94 96 97 97 97 95 90 86 74 69 61 59 54 51 47 45 44 44 44 42 31 43 64 78 90 94 98 96 97 95 74 34 22 27
63 57 50 45 30 24 22 16 15 11 13 11 7 4 2 4 15 40 51 63 81 96 94 95 97 98 98 92 87 88 82 72 65 64 63 55 52 50 53 45 32 54 83 86 95 98 98 99 96 84 49 24 26 32
71 66 54 44 34 29 30 23 15 14 15 14 10 7 3 2 13 39 61 65 74 80 94 96 97 97 97 97 93 93 78 77 75 74 74 71 62 61 61 50 37 58 81 92 97 97 93 96 95 61 29 27 34 41
73 66 58 52 40 35 29 27 18 15 17 16 14 7 5 6 15 38 70 87 91 93 93 96 96 96 96 98 97 96 96 95 91 87 84 80 76 76 71 61 47 78 88 95 98 98 99 96 66 34 29 35 41 48
74 66 60 48 37 23 19 16 16 18 22 19 12 10 12 14 32 60 74 73 79 91 96 95 96 96 96 96 97 98 98 100 100 91 88 85 82 84 75 67 63 96 100 98 98 100 98 90 50 32 38 42 49 62
76 64 54 40 29 24 20 18 17 22 26 24 18 12 19 50 82 86 72 63 86 100 100 96 96 95 96 96 96 96 96 97 97 90 91 92 90 96 90 72 79 100 98 96 99 97 96 92 58 42 43 50 71 69
74 64 53 39 31 29 23 21 23 28 30 28 19 17 20 50 68 64 67 85 97 94 92 94 93 96 97 97 97 97 97 97 95 93 90 87 96 98 96 87 89 99 98 97 96 96 95 83 62 47 63 84 79 89
81 72 65 59 50 40 32 30 32 33 34 32 23 27 56 81 83 89 97 81 72 72 77 86 88 93 96 96 95 96 96 97 97 94 91 89 95 97 97 96 98 98 98 96 96 96 96 93 83 92 93 90 94 86
83 80 71 54 44 45 46 45 43 39 35 28 29 31 33 47 40 38 37 39 49 55 61 75 87 94 95 96 96 96 96 96 98 99 95 93 95 96 96 96 96 96 96 96 96 96 95 96 96 93 95 92 69 56
64 62 61 49 48 48 45 44 42 40 41 37 31 32 32 33 38 40 42 55 63 56 59 72 86 93 96 96 97 95 96 98 100 99 94 92 95 95 96 97 97 96 96 95 94 95 97 96 95 95 92 72 62 42
70 71 62 52 54 52 45 45 45 48 49 44 39 36 36 37 37 53 76 77 78 74 73 81 87 92 96 96 96 95 96 97 98 97 96 96 96 96 96 96 96 96 96 95 95 95 95 96 95 94 86 66 40 17
71 70 61 59 61 69 68 63 58 57 55 47 43 42 43 36 40 79 81 87 97 94 90 90 94 94 96 96 96 96 95 96 96 96 94 96 96 96 96 96 96 96 96 97 96 96 96 95 94 83 42 17 11 8
67 64 62 68 72 74 73 70 64 58 50 42 41 41 40 37 50 84 88 99 100 97 97 97 97 96 96 96 96 96 96 97 96 96 96 97 97 97 97 97 97 96 95 96 96 95 94 93 51 18 14 10 8 10
66 68 76 86 82 68 67 70 69 58 46 45 43 42 40 38 57 90 93 99 98 96 96 96 96 96 96 97 96 97 98 97 98 97 97 97 97 96 95 96 96 96 96 96 94 88 48 19 15 15 14 13 16 21

GFSWCAN_700_rhum_003.txt.gz
RH
18 19 15 12 9 7 6 6 3 8 23 30 35 18 13 66 91 94 99 97 98 98 89 81 84 74 79 88 92 99 99 98 92 99 99 98 94 80 85 80 76 79 89 82 97 98 75 69 69 67 60 55 65 55
18 19 15 12 10 8 6 7 5 2 2 36 29 26 10 50 81 89 94 100 99 99 98 96 93 91 94 87 99 100 100 97 93 98 98 99 94 99 94 81 78 79 75 79 78 66 69 69 64 60 56 58 61 69
19 19 16 12 10 8 7 7 6 4 3 0 16 22 13 22 82 79 91 98 97 98 99 100 91 84 83 90 95 100 91 100 96 98 99 98 100 95 94 85 84 76 81 79 81 73 66 70 70 57 58 58 62 70
20 19 16 13 10 8 7 7 7 5 5 7 4 10 12 13 66 90 95 98 99 98 99 85 87 83 86 88 87 94 95 99 99 98 99 98 100 94 89 84 85 84 80 78 76 79 74 66 68 58 57 56 63 65
21 19 17 14 11 8 7 7 7 5 4 8 10 12 9 12 35 90 94 100 99 99 100 92 81 73 84 87 86 90 86 90 98 99 99 98 99 91 86 88 68 66 64 72 79 78 81 73 69 60 60 61 58 65
23 19 18 16 13 9 7 7 6 3 4 10 10 16 16 14 21 85 99 99 99 98 97 91 81 83 85 88 84 89 86 94 99 99 98 98 91 98 95 84 57 55 65 70 75 82 83 76 70 66 66 64 63 63
25 20 18 17 15 11 8 7 5 1 6 13 21 34 32 15 18 82 96 98 98 98 93 91 81 80 76 76 81 77 98 99 100 100 100 98 99 99 94 68 52 64 73 76 78 79 79 75 70 67 66 66 68 67
27 22 19 18 17 12 8 8 2 2 9 8 42 49 36 14 13 86 98 98 98 98 100 82 77 63 56 75 70 82 100 98 99 99 100 99 99 99 96 73 72 69 67 71 73 76 77 75 73 67 68 70 71 72
31 24 20 19 19 15 10 8 1 6 8 47 49 52 48 22 11 85 97 98 97 98 92 78 79 69 56 87 99 99 100 99 100 100 99 95 94 97 72 69 66 64 68 72 74 76 76 76 76 71 71 72 76 78
35 26 21 20 22 18 11 8 2 7 39 66 68 57 94 27 17 82 98 98 97 99 98 85 77 71 67 82 99 98 99 100 98 99 100 100 73 57 61 69 66 71 70 70 74 70 72 74 70 73 77 79 80 88
38 29 23 22 24 20 14 9 3 12 53 60 78 96 92 35 47 96 98 97 97 99 91 86 73 80 74 72 97 96 90 100 99 95 98 94 57 63 56 59 66 58 59 62 69 89 84 94 80 75 86 77 84 85
41 33 26 24 26 24 18 11 4 12 58 86 97 96 72 91 94 96 97 98 97 90 92 75 66 74 72 73 72 84 93 88 99 90 90 72 49 50 66 59 56 44 47 52 64 71 75 80 69 74 73 75 82 88
45 37 28 26 29 27 22 14 6 9 44 76 87 89 95 92 96 96 98 100 99 84 74 64 60 68 92 92 84 84 88 90 92 86 71 50 50 52 49 59 59 48 37 40 44 51 56 62 66 79 83 83 89 97
49 41 33 30 31 30 26 18 5 5 36 64 83 88 95 93 95 96 94 97 99 83 77 82 84 100 99 93 83 83 86 84 77 72 44 40 34 44 51 55 53 58 47 48 48 49 54 63 71 80 89 92 97 97
52 44 37 34 34 32 30 21 12 2 24 56 68 83 85 82 88 84 93 94 95 85 77 90 99 100 99 90 91 82 80 74 65 49 39 27 26 30 38 49 50 49 54 61 66 65 64 66 75 82 87 97 99 100
54 47 41 40 38 36 33 27 18 2 15 37 57 73 76 81 87 86 89 98 90 82 80 99 99 99 98 83 88 70 72 53 41 36 33 34 33 32 29 32 44 50 48 51 68 81 80 76 75 85 91 96 99 95
56 53 45 46 44 42 38 32 22 7 5 27 44 52 51 51 56 74 82 90 98 100 100 99 97 92 92 91 83 68 48 45 42 36 40 37 38 39 38 32 29 38 47 49 58 77 88 89 87 92 96 98 97 87
58 55 53 53 49 48 44 38 26 17 7 2 6 35 44 45 45 44 55 74 89 98 98 98 98 98 91 92 74 47 48 55 51 51 52 49 46 40 40 41 36 29 38 53 72 94 100 97 94 96 98 97 92 85
60 60 58 60 56 50 45 37 27 27 16 10 10 6 4 7 18 30 40 45 57 88 96 97 97 97 94 92 78 69 63 54 54 55 54 55 48 43 45 43 40 32 34 53 83 95 97 97 100 100 99 94 94 75
69 68 66 65 59 49 42 34 35 26 22 16 16 13 11 8 4 3 12 36 48 55 68 91 92 99 99 97 92 81 76 69 61 53 50 49 50 46 44 44 45 41 32 43 82 98 96 98 100 98 96 97 81 27
80 72 70 69 60 52 48 41 34 26 28 18 18 18 17 14 10 7 3 4 29 52 62 56 71 85 92 96 98 91 66 83 68 66 65 65 64 62 56 50 49 47 34 52 92 98 96 99 98 93 95 82 34 22
87 79 75 70 60 58 55 50 41 31 23 18 19 20 22 17 12 7 7 6 13 28 50 57 75 76 92 94 93 97 90 89 89 78 78 71 65 61 60 59 55 50 39 61 87 93 95 99 98 98 96 66 27 26
89 83 76 71 64 59 46 45 38 30 23 18 19 22 24 20 13 8 9 7 14 44 79 95 98 98 96 95 96 97 97 90 83 84 85 80 78 75 70 69 68 63 44 72 90 96 97 98 98 99 96 43 27 32
88 81 74 69 60 45 42 30 24 21 20 19 20 27 26 20 16 13 10 9 21 54 66 73 76 79 90 96 91 94 97 96 98 99 97 91 84 89 81 72 76 75 56 98 98 96 97 98 98 96 74 30 34 40
84 75 70 63 54 45 37 33 28 26 23 20 26 30 24 20 18 14 9 14 51 100 100 100 96 84 77 78 95 92 93 96 96 97 98 99 97 90 84 80 83 81 76 97 98 98 96 96 97 90 50 41 40 44
88 79 70 56 47 44 34 34 32 31 27 28 33 32 30 24 22 20 22 57 99 94 76 67 73 74 78 81 82 96 93 94 96 97 97 97 98 94 86 81 86 89 78 96 100 99 98 97 96 89 74 57 52 75
85 77 67 64 59 52 45 42 39 37 36 36 38 36 29 28 29 42 46 34 28 26 24 28 40 52 58 73 84 90 96 95 95 96 97 98 98 97 90 84 90 98 97 98 98 96 97 96 95 95 93 75 87 90
82 76 72 71 68 67 60 49 45 46 47 44 39 36 34 28 29 28 26 28 29 36 45 59 46 40 49 62 80 92 95 98 95 95 96 98 99 100 92 94 98 97 97 97 96 96 96 96 95 95 86 96 92 94
72 72 71 63 66 64 53 48 49 46 38 41 43 45 46 44 38 30 30 31 33 55 66 70 73 54 53 64 80 94 94 96 98 95 96 96 97 100 99 98 97 97 96 97 96 96 96 96 95 95 96 95 96 95
64 70 70 69 74 68 57 54 55 52 49 49 52 56 54 46 36 29 33 38 64 75 84 85 86 79 76 78 85 95 96 95 96 96 95 96 97 100 100 99 97 96 96 96 96 95 95 94 94 95 95 95 95 91
64 68 72 76 79 77 62 62 65 63 58 56 58 58 47 39 31 26 33 62 81 88 91 94 92 88 88 91 95 96 96 95 96 97 95 96 96 97 96 97 96 97 96 96 95 95 95 95 96 96 96 95 93 55
65 68 70 73 71 63 64 69 72 64 53 55 52 45 43 41 31 25 51 79 89 94 97 97 98 100 100 100 99 96 96 96 96 97 97 96 96 99 97 95 96 96 96 96 97 96 96 96 96 95 94 84 27 11
47 45 54 65 68 69 75 80 69 54 49 52 46 45 43 35 26 33 71 87 93 98 97 97 98 98 97 97 97 97 97 96 96 97 96 96 97 96 97 97 97 97 97 96 96 96 96 95 95 92 52 16 12 11

GFSWCAN_700_rhum_006.txt.gz
RH
14 18 23 23 20 17 11 7 7 6 4 1 1 2 6 30 64 74 76 81 94 97 78 78 86 90 84 85 90 95 96 99 99 98 99 98 100 89 82 77 76 84 96 96 97 94 81 69 65 69 62 62 71 78
19 18 23 23 20 19 11 8 7 6 4 2 2 2 5 7 28 75 91 89 96 100 97 75 76 80 85 85 100 100 92 93 98 98 98 100 96 93 90 86 79 87 77 87 79 74 61 62 65 56 60 61 72 79
28 19 23 22 20 19 13 8 7 7 4 1 3 7 4 7 8 50 86 93 91 100 94 85 86 82 84 91 98 98 98 100 98 100 99 99 96 99 98 88 87 80 80 82 82 77 78 62 63 56 58 64 65 71
40 20 24 23 20 19 15 9 8 7 2 1 6 16 16 7 6 27 75 99 99 99 99 94 96 89 89 91 97 91 99 100 99 100 100 100 99 94 98 97 90 90 88 78 70 80 77 64 62 58 58 64 71 70
52 21 24 25 21 18 17 11 8 6 2 2 17 18 22 23 6 11 59 84 100 99 96 99 96 93 86 82 82 92 99 99 96 99 99 100 96 92 97 86 77 68 71 68 81 76 84 75 65 61 62 58 61 67
62 24 26 27 22 18 17 12 9 6 1 14 18 14 40 36 14 12 59 85 97 100 100 97 93 88 82 79 86 94 100 100 93 100 100 99 97 99 98 88 61 58 61 70 76 72 84 78 72 67 65 63 61 63
75 27 28 29 22 20 18 14 10 6 1 12 11 34 44 42 20 23 78 87 97 99 100 96 94 83 82 84 91 87 98 98 100 98 98 99 97 99 99 90 70 61 58 68 77 76 83 78 73 70 67 65 64 65
78 30 32 31 23 23 21 16 11 6 2 27 53 57 47 33 18 35 87 91 98 98 96 98 89 81 77 77 77 90 95 100 99 99 99 99 99 93 90 55 68 71 72 68 71 77 82 79 74 70 69 70 70 70
85 34 36 33 24 26 25 19 13 5 17 49 45 64 86 60 19 31 91 96 97 98 99 80 79 75 64 83 97 99 99 99 95 99 100 99 98 87 68 62 66 69 66 66 69 71 79 81 77 72 73 70 74 75
94 40 39 35 25 28 27 24 14 4 43 67 58 80 88 26 32 81 96 96 97 98 93 91 64 68 70 77 94 94 99 98 99 100 99 98 85 59 62 69 71 68 72 69 72 73 77 76 75 76 73 74 78 78
97 62 43 38 26 29 29 28 16 3 45 64 68 74 32 38 95 96 97 97 97 98 87 81 65 72 75 74 82 89 91 95 99 99 100 96 57 65 63 56 60 64 62 70 72 77 78 88 77 74 77 78 87 91
98 84 50 41 30 31 32 31 17 4 41 60 49 52 83 96 96 96 96 97 92 86 84 72 74 84 76 77 74 80 88 87 97 94 93 74 48 48 62 58 56 50 54 58 69 74 82 86 83 85 82 87 87 90
98 96 57 43 36 34 34 33 20 5 35 51 74 87 90 94 95 94 95 98 99 86 77 72 76 89 85 88 88 78 92 92 82 86 70 47 47 45 50 64 61 47 47 46 57 74 75 79 84 78 83 86 85 87
99 94 57 46 41 38 37 35 24 9 26 48 59 76 83 86 84 90 94 100 92 90 89 82 92 100 100 98 95 90 84 78 85 74 42 40 36 32 46 54 59 59 52 41 46 50 60 70 77 69 76 83 85 89
96 92 61 49 44 42 41 38 29 14 16 44 50 63 70 85 92 92 100 99 100 97 99 100 99 99 99 99 90 79 83 79 62 45 43 30 30 29 36 51 54 56 57 47 47 48 49 55 67 71 79 88 93 98
93 95 63 51 47 46 45 41 34 21 6 33 49 60 67 68 73 79 86 91 98 100 100 100 99 98 94 87 92 80 70 53 49 44 33 34 35 36 34 34 46 56 60 56 67 68 66 64 69 78 84 89 96 97
95 95 61 53 52 51 50 45 38 22 6 7 35 47 54 58 56 60 72 86 92 93 98 98 98 96 98 95 92 75 74 56 54 48 42 41 42 40 39 40 32 40 53 57 60 61 78 79 75 81 88 91 96 99
97 92 63 56 56 58 56 50 40 26 16 8 5 6 23 36 41 43 44 55 71 90 100 99 99 99 94 96 86 79 72 68 63 62 57 51 52 51 48 40 42 34 30 42 54 62 77 88 84 83 91 98 98 98
96 92 65 59 61 60 59 53 40 34 27 16 17 16 8 7 6 6 9 23 41 56 71 95 97 95 95 97 92 88 79 70 64 68 68 66 58 52 48 46 40 40 35 29 41 66 89 96 93 94 96 98 98 98
96 95 86 73 66 59 61 52 48 43 31 22 25 18 20 18 17 14 10 7 5 10 43 58 66 80 96 100 98 96 90 74 69 67 72 62 60 59 57 46 43 43 43 38 34 60 96 99 100 99 98 98 98 97
95 95 93 88 70 60 64 61 49 40 33 35 31 21 23 23 23 21 16 11 8 7 5 6 22 48 69 86 93 91 96 96 92 78 70 70 56 52 51 50 59 58 49 44 40 66 96 96 94 98 96 98 95 94
96 95 95 90 72 66 67 61 57 50 43 38 28 22 24 25 24 18 12 10 9 7 6 7 10 14 30 53 69 95 92 82 88 96 98 78 63 62 66 67 64 58 54 47 43 75 96 92 96 98 98 97 94 74
95 95 95 94 82 72 59 56 52 46 39 31 27 25 24 26 26 18 14 12 11 10 8 9 19 38 45 55 70 72 80 84 75 84 92 94 83 75 72 68 64 64 63 56 49 82 100 95 95 99 97 95 95 53
95 95 95 94 80 63 60 51 45 36 30 28 26 26 24 29 28 23 17 13 13 9 9 13 32 48 57 65 58 64 81 88 85 83 94 91 96 93 80 74 75 74 72 69 66 97 100 99 100 100 98 97 88 47
96 94 95 86 72 63 59 52 44 39 34 31 30 31 28 33 30 28 18 13 11 15 24 48 56 71 79 77 78 76 75 71 82 84 94 96 97 97 97 89 88 84 77 78 72 88 100 100 100 100 97 96 82 39
95 96 86 67 60 58 51 46 42 39 33 33 34 37 38 38 36 27 20 19 16 19 20 19 17 16 20 46 65 68 69 74 73 78 93 96 96 96 97 99 94 86 82 82 83 92 100 98 98 98 96 95 70 48
94 87 79 72 58 55 53 49 47 44 40 40 41 43 43 37 31 24 27 36 36 26 18 19 24 31 36 29 31 44 55 59 72 79 95 96 93 95 96 97 100 93 95 93 96 96 98 98 97 96 96 95 82 68
85 79 80 83 78 71 69 66 64 61 53 46 49 42 35 32 30 36 49 48 38 22 18 22 30 43 49 54 53 38 41 52 65 85 94 95 95 94 96 97 97 97 85 90 99 98 97 97 97 96 96 96 94 87
74 83 93 78 76 75 67 64 62 60 51 51 50 40 36 33 40 52 51 42 28 22 23 32 64 78 77 72 65 56 50 58 67 87 94 96 97 97 96 96 96 97 100 94 97 98 97 96 96 95 95 96 95 94
87 86 75 70 71 70 71 72 71 68 59 58 55 42 33 40 49 48 40 34 27 26 43 71 78 78 78 75 74 69 66 68 75 94 96 95 96 96 95 96 96 97 97 99 98 96 95 95 95 96 96 94 95 96
82 70 66 67 68 71 79 81 79 68 63 60 50 37 37 37 32 36 40 33 26 57 78 84 81 79 81 83 81 81 83 81 88 97 96 96 95 96 96 95 96 97 97 96 97 97 96 96 96 94 94 96 96 95
65 66 67 67 66 71 75 74 74 67 61 58 43 38 37 38 36 33 25 24 61 79 80 81 86 93 92 91 90 88 90 90 94 96 96 97 96 96 96 96 96 96 96 96 97 96 96 95 94 96 96 96 96 96
72 70 65 61 55 48 53 61 63 66 56 46 36 30 28 36 38 35 28 49 78 82 85 86 91 92 94 96 96 94 94 96 96 96 96 96 96 96 96 96 96 96 96 96 96 96 96 97 96 96 96 96 95 78

GFSWCAN_700_rhum_009.txt.gz
RH
65 46 22 18 23 22 21 21 17 14 13 11 3 1 0 2 21 53 63 73 76 67 68 69 73 85 86 94 98 91 87 95 96 97 97 98 97 99 90 85 96 89 94 100 99 97 84 67 66 78 70 69 78 86
71 60 34 20 22 22 22 22 19 16 13 11 4 2 2 2 3 28 62 80 82 86 89 78 73 76 87 99 96 92 92 97 92 96 96 97 98 99 95 82 80 92 83 79 84 76 74 77 69 71 64 68 69 82
78 71 46 21 23 21 22 22 22 19 13 10 4 7 14 15 8 6 40 69 90 100 100 96 81 84 83 84 85 89 97 98 99 96 98 98 94 97 97 95 95 80 76 78 83 82 74 77 63 62 63 67 74 72
88 78 57 24 24 22 22 22 24 22 14 10 4 15 22 22 30 8 12 65 93 100 100 100 92 87 85 85 81 99 99 99 95 99 98 99 99 99 99 99 94 99 88 83 72 71 77 80 64 61 60 75 78 78
93 89 69 30 26 25 22 22 25 23 15 9 3 17 22 11 38 17 7 50 95 99 100 100 98 89 86 84 84 88 94 95 100 100 99 98 99 98 91 91 72 81 73 80 80 81 74 78 71 64 60 67 69 67
89 94 78 36 29 28 22 23 28 23 15 8 7 7 11 28 51 28 8 46 94 99 100 99 98 99 98 84 79 78 88 94 99 99 99 99 99 98 99 98 77 68 58 56 75 74 74 78 78 67 64 62 67 66
93 95 89 46 33 32 23 26 29 21 13 6 48 43 54 69 52 27 44 82 88 97 98 97 100 92 86 75 72 78 89 97 100 99 99 100 94 99 98 88 93 70 64 63 70 71 76 81 77 70 66 64 64 64
96 94 91 54 37 34 25 30 30 22 9 32 51 29 66 61 45 21 95 99 96 97 98 98 98 88 76 78 88 88 87 99 99 98 100 98 99 99 97 65 66 71 74 66 72 75 77 84 79 71 67 66 66 68
95 95 96 62 40 37 27 34 31 19 7 69 72 76 92 84 31 27 98 98 97 98 98 100 96 99 79 91 97 98 98 95 100 100 100 95 99 93 72 80 79 74 68 70 72 69 72 81 81 76 73 70 72 73
96 95 91 76 45 40 30 36 31 15 25 51 81 84 89 25 21 74 96 97 97 98 98 87 89 78 70 62 83 99 96 92 96 91 90 95 49 64 53 62 71 70 71 77 76 69 68 78 82 81 82 74 75 76
95 93 90 87 50 42 33 36 32 13 51 28 15 20 19 45 84 96 96 96 96 96 88 84 79 86 73 76 89 82 89 83 99 90 91 84 42 50 59 64 61 65 68 72 77 75 84 88 89 91 82 75 77 82
96 95 87 87 64 44 36 37 32 14 51 56 88 89 95 96 96 97 96 97 96 100 97 87 75 78 81 77 78 79 80 81 93 85 84 60 40 50 50 53 66 61 64 60 69 82 88 84 85 78 81 90 88 92
96 96 94 92 74 46 38 38 34 19 47 74 77 83 93 92 97 91 93 100 100 98 89 82 85 77 88 92 90 76 84 90 79 82 61 31 48 43 37 54 80 62 56 67 62 70 88 98 96 85 92 96 98 93
95 97 94 94 63 46 40 41 36 27 23 60 61 71 75 79 79 88 86 92 92 90 85 97 100 100 100 96 93 94 89 77 78 76 45 51 42 32 33 52 67 88 71 60 56 67 82 88 96 97 87 88 90 87
95 96 94 97 61 48 43 43 40 33 10 44 54 60 67 76 80 84 84 90 83 97 99 98 100 100 92 94 92 83 81 75 68 58 66 47 38 40 38 41 61 80 93 72 52 57 65 67 73 82 82 81 87 89
96 94 96 94 68 50 47 47 43 38 19 19 51 56 64 66 68 79 86 87 80 82 100 100 99 95 97 89 91 82 83 65 65 60 56 39 42 43 42 40 40 62 81 92 68 53 52 54 58 69 76 79 85 91
93 92 96 96 69 51 51 51 47 40 14 7 26 46 63 65 62 63 70 83 92 100 99 99 95 100 99 95 90 77 74 58 61 61 52 46 51 53 52 48 42 37 50 67 75 80 75 67 69 68 78 83 87 93
90 95 96 96 75 55 53 56 52 38 22 13 7 10 40 52 53 53 51 56 72 85 98 99 98 100 95 92 87 74 68 69 67 64 63 60 53 55 57 54 49 43 38 34 54 62 66 72 80 80 78 88 93 95
96 96 96 95 88 70 60 59 55 38 33 28 15 17 10 5 7 12 19 32 41 47 66 92 100 92 90 92 95 88 82 77 68 67 67 67 64 62 60 58 52 48 41 38 32 44 59 66 74 81 84 89 96 98
96 96 96 95 95 92 81 58 53 40 42 32 28 20 20 20 20 19 19 15 9 6 16 44 55 67 83 92 98 95 90 89 88 75 70 71 69 66 62 60 60 51 44 42 42 37 49 75 92 95 92 95 100 99
96 95 96 96 96 95 88 62 57 51 41 34 31 33 31 23 24 24 25 23 18 14 11 9 8 6 6 14 34 60 83 85 87 85 75 70 80 80 70 64 60 52 48 55 52 45 48 82 100 100 97 99 95 96
96 96 96 96 96 95 90 70 61 56 51 47 45 40 29 24 26 28 27 20 14 11 9 9 8 7 6 6 6 5 6 7 15 37 51 69 77 81 89 74 62 57 57 62 58 51 51 85 100 100 100 99 99 98
97 96 96 96 96 94 79 78 67 60 55 48 41 33 29 28 30 32 26 17 13 12 12 11 10 9 8 7 6 7 7 7 8 12 15 23 41 55 77 89 77 65 68 64 61 58 53 71 100 100 100 99 98 97
96 96 96 96 95 88 76 69 65 59 52 44 39 33 30 31 35 32 27 17 14 12 10 8 8 9 11 14 16 17 22 25 22 18 23 32 38 44 66 70 87 88 77 70 63 62 61 69 99 100 99 100 99 99
97 95 95 96 94 85 77 69 61 54 47 41 35 31 30 34 38 38 29 12 14 14 12 12 15 13 11 10 10 11 11 11 20 32 46 52 57 68 81 97 92 97 94 82 71 70 69 69 95 100 99 98 98 97
94 95 95 95 85 75 67 58 53 50 46 41 34 34 38 40 44 36 23 17 16 20 25 29 29 19 12 12 13 16 22 24 14 12 41 62 65 66 74 95 97 93 97 97 89 82 77 78 94 100 98 97 97 97
95 91 86 83 70 66 62 54 50 45 44 43 44 43 42 44 34 20 16 22 27 31 35 35 32 17 12 13 21 30 36 41 42 36 22 53 63 67 73 81 96 97 97 97 97 96 88 83 93 100 97 97 97 96
87 82 81 81 85 85 79 67 62 60 58 56 55 52 49 40 35 34 30 28 30 34 34 29 20 15 16 22 38 52 60 63 56 51 30 44 54 62 76 79 96 96 96 96 96 99 94 94 97 98 97 97 97 96
76 78 83 87 95 96 93 83 75 68 58 59 61 59 54 52 41 29 28 29 28 28 23 18 17 18 35 57 61 64 64 66 69 59 39 40 48 64 86 95 96 96 96 96 96 97 99 98 98 97 96 96 96 96
74 75 86 94 95 88 76 72 67 66 67 69 68 64 58 48 33 28 28 28 30 27 21 18 32 54 60 63 68 77 81 70 67 60 43 46 56 76 98 96 96 96 96 96 96 96 96 96 94 94 96 96 95 95
73 88 94 94 87 74 74 74 74 73 74 74 70 62 53 42 26 20 18 24 27 23 23 46 64 66 64 70 75 74 80 83 73 67 61 62 68 86 95 97 96 96 96 96 96 96 96 96 97 97 97 96 96 95
86 94 94 89 78 75 74 68 64 62 61 62 55 48 45 39 23 18 18 26 26 25 47 64 66 68 70 71 74 76 76 80 82 80 81 87 93 97 96 96 96 96 96 96 97 97 96 96 97 96 96 95 95 96
91 90 81 79 75 72 57 49 48 49 40 40 40 39 32 26 21 19 26 28 26 44 66 65 66 67 71 73 74 79 85 88 89 91 95 98 97 96 96 96 97 96 96 96 96 96 95 95 96 96 96 96 96 96

GFSWCAN_700_rhum_012.txt.gz
RH
97 96 93 57 34 20 23 23 22 24 25 24 19 14 5 3 3 4 45 65 85 88 85 85 78 89 93 92 95 90 85 92 94 95 89 99 97 100 92 90 84 83 97 98 99 96 92 79 78 82 72 75 72 92
97 96 92 72 49 22 23 24 23 22 25 26 21 13 6 4 11 6 9 56 81 84 85 79 79 74 75 90 100 85 93 93 85 88 97 93 100 91 94 94 93 90 81 89 83 76 79 82 77 72 68 69 69 86
97 96 94 91 61 25 24 25 24 22 24 26 21 15 6 4 17 22 12 12 66 84 99 98 82 87 87 83 96 87 86 86 92 95 96 98 94 93 94 92 89 95 88 86 82 84 82 73 83 64 63 71 67 86
97 96 96 95 74 29 26 27 24 22 25 26 21 14 6 8 16 22 24 15 30 92 100 100 94 88 82 90 87 84 84 94 96 96 99 100 94 97 99 96 98 93 99 90 75 76 85 82 76 67 62 72 77 77
96 96 95 96 87 35 29 30 24 23 27 25 20 8 15 49 43 14 15 33 20 97 99 95 100 89 91 87 85 84 88 99 100 99 99 98 94 97 81 91 81 72 78 85 80 87 75 69 69 72 64 65 72 76
96 95 94 96 94 52 32 32 25 25 28 24 13 19 57 39 43 60 46 31 29 97 97 98 99 97 85 84 85 86 89 84 94 100 100 99 89 98 99 100 74 80 71 72 76 64 64 70 70 75 66 64 69 65
96 96 96 97 94 74 36 35 26 26 27 20 17 66 59 60 69 70 45 100 51 96 97 98 99 99 99 98 93 84 77 79 90 100 99 100 96 100 97 96 67 92 94 76 82 65 64 69 74 77 70 66 67 70
96 95 96 97 95 79 39 36 27 26 24 14 58 65 80 72 54 48 68 100 92 96 98 98 99 100 98 98 92 82 78 85 91 94 94 88 98 100 90 72 71 69 78 75 73 72 69 67 77 78 72 67 65 67
96 94 95 95 96 85 43 36 29 26 16 38 30 59 79 60 55 21 97 98 96 97 98 100 98 100 94 99 88 91 87 99 94 89 94 94 95 94 69 80 95 100 88 78 79 77 77 69 73 80 75 69 68 70
95 96 98 97 95 94 47 35 30 26 20 29 13 25 14 25 44 89 96 96 96 97 100 100 100 98 99 91 99 94 95 96 98 89 85 74 49 78 95 89 71 72 81 84 79 78 73 70 77 90 93 87 77 85
99 97 98 96 95 91 50 36 31 24 44 38 41 36 58 82 94 96 96 96 96 97 96 98 100 93 98 88 97 90 87 82 97 90 78 82 65 81 78 72 94 67 68 84 76 80 79 76 79 97 98 98 96 93
99 100 100 95 94 94 61 37 33 26 40 75 84 88 93 98 99 97 96 98 99 100 95 97 97 95 87 94 83 83 75 73 80 77 76 64 85 73 59 48 71 89 79 82 75 78 84 94 96 97 93 99 92 97
99 100 97 94 94 95 66 37 35 33 25 68 72 74 82 86 99 100 100 100 100 99 98 91 81 82 89 84 82 76 74 90 72 82 72 76 65 46 40 42 63 75 82 78 76 75 81 94 99 98 99 98 99 98
100 100 94 95 95 96 60 40 36 36 23 32 63 62 70 72 76 84 87 100 100 100 100 95 99 92 93 94 88 83 83 76 77 86 67 67 43 44 44 45 66 78 94 84 79 80 80 88 98 99 98 96 97 98
98 96 93 94 96 96 65 44 39 40 35 19 52 56 61 71 77 82 86 96 99 100 100 100 100 100 96 88 87 80 76 76 68 67 70 66 44 46 47 45 56 82 73 90 94 85 83 86 87 93 99 95 91 96
97 92 92 96 96 96 83 47 43 44 43 24 41 54 58 71 77 83 85 87 96 100 98 100 99 92 89 86 85 75 73 59 64 68 65 53 47 55 58 56 48 49 73 82 90 85 83 75 70 74 85 93 89 90
96 87 95 96 95 96 94 65 47 49 43 12 17 33 53 64 68 70 82 86 92 100 99 97 98 97 98 97 86 77 64 56 62 62 61 61 56 51 54 54 56 56 46 53 81 76 87 85 84 87 78 77 82 87
93 94 96 96 95 96 95 75 47 52 38 18 13 9 38 61 66 61 59 63 75 90 98 96 98 100 99 100 88 63 58 62 63 62 64 66 65 62 59 52 48 49 53 48 39 58 75 81 82 89 93 96 97 98
96 95 96 96 95 96 96 83 71 56 46 31 26 15 11 14 41 49 52 51 50 50 66 94 96 94 96 88 87 86 80 75 72 73 71 72 68 64 64 62 62 57 51 49 47 41 40 60 74 83 88 89 92 98
96 96 97 95 95 97 95 93 91 70 52 38 36 27 17 16 14 13 12 10 10 11 19 37 48 58 72 84 87 87 84 82 78 78 79 81 84 80 78 74 67 65 60 55 50 46 44 41 62 85 92 91 97 99
93 96 94 95 96 96 95 94 94 92 52 48 44 29 21 24 27 22 23 24 25 24 22 17 12 10 8 8 11 11 14 19 25 30 41 59 73 74 78 84 80 71 69 64 54 50 53 48 48 73 97 99 99 99
95 96 96 96 94 96 96 94 95 94 93 66 44 43 41 40 38 29 23 26 27 25 18 12 10 8 7 7 6 6 6 5 5 5 5 4 6 12 32 63 74 74 74 76 71 55 57 58 52 51 86 96 98 98
96 96 97 96 97 95 92 91 95 95 95 81 66 57 51 44 41 32 27 29 28 26 21 14 10 8 6 5 5 5 5 5 5 5 5 5 4 4 4 4 8 38 56 73 77 72 62 63 57 55 65 90 98 97
96 97 96 96 94 94 89 91 88 95 95 94 65 53 41 32 31 30 33 31 31 30 20 12 9 7 7 6 7 7 7 7 7 7 7 6 5 5 6 5 4 8 18 41 71 84 83 73 67 64 60 80 98 99
97 95 95 95 92 92 91 83 86 94 91 69 52 44 35 35 34 35 35 32 27 14 11 9 10 12 12 12 15 14 11 10 10 10 10 10 9 6 6 8 11 13 32 44 61 79 93 90 78 80 73 75 98 96
95 94 88 94 90 88 90 87 89 90 86 62 47 43 40 35 37 39 36 35 22 10 12 13 12 11 13 16 14 11 11 11 12 13 16 21 22 19 11 6 15 32 45 62 94 85 89 97 94 87 92 90 100 98
94 90 84 80 87 87 85 84 92 84 52 45 45 42 40 42 44 39 24 24 33 29 19 16 13 14 13 12 12 13 13 14 19 28 35 40 42 43 36 18 10 41 55 62 89 98 88 92 97 96 98 100 100 100
87 82 76 89 91 92 95 95 80 58 52 52 54 51 51 48 38 41 49 51 42 26 20 16 16 18 18 16 14 14 24 40 46 47 48 48 51 54 49 29 21 45 64 69 80 96 98 97 97 97 98 98 99 98
87 75 75 87 95 95 94 92 86 82 82 79 70 62 58 56 58 57 55 46 29 22 16 14 17 20 18 16 22 42 52 56 53 49 53 56 58 63 56 37 37 54 60 71 80 94 96 97 97 97 96 97 98 97
79 75 82 93 94 94 93 89 84 76 69 66 65 63 62 60 60 56 50 36 25 17 15 14 18 20 20 33 44 53 63 62 56 56 57 62 66 63 54 45 45 53 63 85 98 98 96 95 95 96 95 96 96 96
79 84 91 85 81 84 93 94 86 75 71 72 70 60 50 49 41 37 32 25 17 15 15 20 22 29 46 53 56 52 53 62 61 62 66 67 72 70 55 51 54 73 91 99 99 96 94 94 97 97 96 96 97 97
87 93 92 88 89 94 96 93 84 74 66 58 44 37 33 29 27 20 16 14 14 16 21 22 32 52 53 57 59 58 58 62 68 74 79 75 76 76 69 68 81 94 97 96 95 96 97 96 96 96 96 96 97 96
93 87 87 95 95 93 86 79 73 64 40 31 26 23 21 22 25 19 15 15 20 23 23 28 50 55 54 61 61 59 63 69 79 86 86 85 82 85 87 95 97 97 97 96 97 96 96 96 96 96 97 95 95 96

GFSWCAN_700_rhum_015.txt.gz
RH
73 94 96 94 96 92 45 21 23 23 22 27 30 29 26 21 16 5 6 4 17 65 76 99 100 100 94 90 93 94 92 91 94 94 88 99 94 98 96 96 92 88 87 94 100 98 84 80 86 89 79 73 71 70
82 96 95 95 96 92 72 27 24 25 23 25 30 30 28 24 16 8 6 14 9 12 65 78 100 98 99 97 98 94 91 87 84 88 93 100 98 97 97 96 95 96 81 83 80 67 78 84 89 85 82 67 71 70
97 96 94 96 97 96 88 30 26 27 26 25 29 30 28 22 9 10 11 17 22 18 28 87 77 100 100 99 98 93 92 90 87 84 94 98 97 92 90 90 96 99 93 98 94 80 86 87 86 88 76 64 72 72
96 96 95 96 97 96 88 37 29 30 27 26 29 30 26 14 28 54 50 14 17 27 16 89 92 97 94 98 98 99 97 97 91 91 93 98 99 87 82 84 90 88 99 99 94 80 80 85 81 74 73 63 75 76
96 96 96 96 96 96 94 60 33 32 27 27 30 28 15 42 59 54 40 54 7 32 75 90 95 84 88 93 100 100 98 93 95 97 98 98 96 94 81 81 65 70 75 90 87 99 96 84 68 72 72 64 69 74
95 95 95 96 97 97 96 86 38 36 29 30 30 18 48 54 64 62 86 74 29 37 59 97 98 82 94 92 100 99 95 93 100 100 100 100 100 100 98 94 56 70 98 97 83 93 89 86 69 73 77 66 65 68
96 96 96 96 96 96 95 91 50 37 29 33 22 41 44 68 62 67 61 98 62 34 87 97 99 100 100 99 97 94 93 100 100 100 100 100 100 100 99 93 86 86 90 100 100 93 82 72 70 73 82 71 66 68
95 96 96 96 95 96 97 95 55 34 33 26 31 18 52 79 57 50 94 100 88 96 96 97 99 99 99 96 95 94 99 99 100 100 100 100 100 100 96 99 100 100 87 93 100 94 88 78 74 74 83 75 69 68
96 96 97 96 97 97 96 95 52 32 30 30 10 13 32 32 25 31 96 97 94 95 96 98 99 98 100 99 100 97 92 99 96 91 85 94 100 90 99 98 85 87 98 98 89 85 78 79 74 76 84 89 87 72
96 96 98 94 95 96 97 95 49 32 34 23 42 59 68 70 88 95 95 95 95 96 98 98 98 98 99 99 98 97 98 98 99 97 89 100 88 100 100 92 78 94 83 82 96 99 92 86 82 80 93 98 96 80
96 97 95 91 94 94 95 91 48 33 45 63 80 91 92 95 91 95 95 96 97 97 97 97 98 98 99 99 98 100 90 75 71 78 90 93 99 87 82 68 53 64 89 78 85 83 87 87 85 80 93 100 99 96
96 96 94 88 87 90 95 95 58 34 27 65 69 71 81 94 92 96 100 100 99 98 100 98 100 99 93 100 92 75 69 76 78 92 86 81 84 73 48 44 43 59 81 92 86 85 84 82 93 92 99 100 99 99
98 96 90 85 88 91 93 94 64 36 35 27 60 66 75 87 96 100 100 100 100 99 100 98 94 90 88 82 73 73 72 92 79 81 78 82 72 49 48 47 64 80 89 86 95 93 92 92 95 99 99 98 100 98
96 95 90 84 87 92 93 94 68 37 38 27 33 60 61 70 76 75 83 100 100 100 100 100 100 87 84 80 78 73 83 79 77 90 78 77 56 50 50 48 73 84 89 99 98 96 98 92 98 99 100 99 98 97
96 98 90 85 90 94 95 96 88 47 39 36 33 53 56 58 73 79 80 91 100 98 100 100 100 99 97 88 84 78 80 78 65 67 71 70 47 58 63 56 52 76 93 86 86 98 95 95 96 96 99 99 99 98
97 92 90 91 93 95 96 96 96 84 42 45 32 41 51 52 76 85 92 99 100 100 98 97 97 94 91 93 90 78 77 58 61 68 71 62 54 55 60 59 57 56 51 72 89 94 97 94 86 90 90 100 99 97
96 88 96 93 95 94 96 96 96 95 73 42 25 17 18 46 69 84 91 99 100 100 94 94 97 87 96 99 100 80 68 59 63 68 68 66 66 64 61 56 53 52 53 54 48 81 85 82 81 85 95 92 95 98
92 97 96 95 96 94 95 96 96 94 85 60 36 19 10 23 56 69 71 80 94 100 97 97 96 98 95 99 88 63 66 73 74 74 72 73 72 70 67 63 61 58 57 58 58 50 44 78 94 85 88 94 96 99
98 97 96 97 94 91 95 94 96 92 81 84 49 32 22 15 28 66 68 63 60 64 93 99 96 88 82 84 77 73 77 78 83 88 88 84 79 77 76 76 72 68 65 60 62 60 50 44 46 70 87 89 88 90
97 97 98 97 95 93 95 94 94 94 88 77 89 50 30 19 14 12 25 37 46 48 45 49 57 64 69 75 78 82 85 86 88 88 86 82 79 79 80 78 83 84 78 76 71 64 58 50 47 46 59 87 90 89
97 96 96 97 95 92 96 94 94 94 95 88 81 86 49 39 26 18 19 20 19 17 15 16 19 20 16 14 14 13 14 15 15 18 17 14 12 13 14 16 34 58 74 74 74 74 74 61 53 53 51 64 87 97
94 97 98 96 95 98 97 92 93 94 93 92 89 91 42 33 26 24 30 34 32 25 26 27 24 20 15 12 10 8 7 6 5 4 3 3 3 3 3 3 3 4 6 20 47 58 66 72 71 58 58 65 90 93
97 97 97 97 97 97 92 82 84 86 95 91 90 95 90 66 58 53 47 42 36 27 28 30 28 22 16 12 9 6 4 4 4 4 5 5 5 5 4 4 4 3 3 3 4 10 46 65 68 74 64 64 80 95
97 97 97 96 94 93 90 84 80 80 89 94 96 95 95 84 60 44 37 32 30 32 32 32 30 28 14 7 5 5 4 4 4 6 8 7 7 7 7 7 7 7 5 4 4 4 6 24 58 72 74 70 74 95
98 96 95 94 89 88 89 77 75 80 91 96 96 96 79 54 42 41 40 36 36 35 34 26 16 9 7 7 6 6 6 8 9 9 9 9 10 10 10 10 10 10 9 7 5 6 6 16 40 78 88 79 76 95
96 94 86 86 84 83 83 77 76 83 94 96 95 87 70 55 44 43 41 38 37 32 21 13 16 14 9 6 5 9 10 10 10 11 12 11 11 12 14 16 15 18 22 16 9 7 11 20 38 91 100 96 89 89
95 87 83 76 78 76 78 77 81 93 96 96 92 86 69 42 45 42 39 31 27 38 39 32 19 13 8 6 7 10 12 12 12 12 13 18 26 33 34 33 31 32 33 32 21 12 16 28 44 95 100 100 97 98
90 80 76 72 72 76 86 93 96 95 95 90 69 53 60 50 46 41 42 48 51 48 41 29 19 13 9 9 10 15 16 15 16 24 32 37 43 47 49 42 37 41 38 40 37 21 24 39 48 84 97 100 96 97
83 76 78 76 74 88 93 92 94 92 86 85 85 81 75 70 60 60 59 58 56 52 44 31 19 12 12 11 16 17 20 31 40 42 41 38 40 50 53 46 49 50 47 48 40 29 44 62 66 90 97 98 99 97
82 81 80 72 74 74 82 94 94 96 96 96 91 79 67 61 62 61 62 58 54 46 31 21 15 13 12 16 19 30 44 50 51 49 44 40 43 49 55 60 58 59 54 44 39 45 58 68 81 89 92 96 96 96
83 80 77 74 74 75 84 95 95 95 96 95 85 69 65 60 49 46 41 34 31 24 18 13 12 14 18 19 27 41 45 49 51 49 47 46 52 61 70 69 68 58 43 44 51 61 75 89 98 98 96 96 97 96
82 78 76 74 76 83 94 92 94 95 91 87 77 70 49 34 27 19 15 16 17 14 11 11 15 19 20 28 45 46 42 47 49 51 54 60 70 79 80 78 78 66 52 56 72 95 100 100 99 99 96 96 96 96
84 74 80 94 95 94 91 95 96 94 83 70 62 46 29 28 23 16 14 14 12 10 10 14 19 22 27 44 48 46 50 52 53 58 67 77 85 89 87 84 85 78 77 91 100 97 97 97 97 96 96 96 96 96

GFSWCAN_700_rhum_018.txt.gz
RH
49 50 44 57 89 95 96 96 80 24 23 24 26 28 30 30 27 26 22 17 9 6 20 89 98 93 95 94 97 82 84 86 90 93 89 96 100 97 97 94 93 94 97 97 100 98 83 80 84 87 87 83 78 73
75 66 58 81 95 96 96 96 95 65 25 26 26 26 30 32 32 30 25 20 14 8 7 57 98 96 96 96 94 97 95 85 90 93 90 90 87 95 97 94 98 98 87 85 79 67 71 81 84 85 88 79 74 72
57 74 96 96 96 95 96 96 95 44 28 28 28 27 29 32 33 29 21 23 22 18 11 12 69 100 100 94 97 100 100 97 90 86 92 93 98 98 95 88 86 94 99 96 97 72 89 88 82 88 88 73 71 75
96 98 96 96 96 95 97 96 95 61 33 32 31 29 31 32 24 28 33 36 49 58 31 16 20 99 100 100 95 99 96 96 99 97 97 98 98 94 87 84 86 84 96 94 88 74 79 78 92 86 74 74 69 77
96 96 96 96 96 96 96 96 96 93 42 37 32 30 32 24 37 32 38 64 97 80 34 21 41 82 98 98 99 97 97 98 100 96 92 95 97 97 100 96 67 76 88 89 80 89 99 89 88 80 72 80 70 70
96 96 96 96 96 96 97 96 96 94 54 43 32 32 26 34 30 46 53 74 72 75 27 23 72 96 98 98 99 99 98 99 98 95 98 98 100 99 97 98 87 99 98 96 92 89 74 75 82 79 71 84 75 69
97 96 96 96 96 95 95 95 96 96 77 34 31 29 16 19 50 47 62 91 84 45 46 54 95 95 98 97 97 98 97 98 99 97 98 99 99 100 99 98 99 99 100 99 92 98 76 78 78 75 69 81 79 70
96 96 96 96 95 95 95 95 96 94 42 30 27 14 12 22 27 42 74 86 70 96 90 94 97 97 98 98 98 99 98 97 96 98 99 99 100 98 96 90 98 96 98 99 91 97 99 90 87 75 70 74 82 72
96 95 95 95 95 95 96 96 96 86 31 35 59 55 42 43 42 51 69 73 78 92 95 96 97 98 98 99 99 98 98 99 96 91 100 100 98 99 93 91 96 91 92 88 98 92 99 94 83 73 73 75 88 82
96 95 94 95 95 95 95 96 98 58 28 59 79 82 86 91 89 91 75 87 94 96 95 96 99 98 99 97 99 99 98 96 98 100 100 100 97 100 99 100 77 67 79 96 86 85 86 82 85 83 82 84 92 88
97 97 94 95 95 95 93 95 97 53 31 54 73 75 78 90 88 90 93 98 98 97 97 98 98 98 99 98 96 96 97 96 88 85 97 98 98 99 97 82 53 42 43 82 94 82 87 90 88 85 85 90 97 98
96 98 94 95 95 89 91 94 97 79 35 30 50 58 66 76 86 90 97 95 100 100 97 98 97 98 98 97 97 91 85 76 82 91 93 100 81 83 54 47 45 48 52 68 87 88 90 83 80 90 94 93 97 100
96 98 96 94 90 88 90 94 95 96 43 35 30 32 60 74 81 88 99 100 100 100 100 94 98 97 96 94 76 71 74 96 87 94 91 68 74 50 51 49 60 71 86 88 97 100 100 91 94 93 98 98 99 100
96 97 96 96 91 87 95 96 97 95 57 38 27 47 59 68 74 78 93 100 100 98 97 99 99 100 94 81 81 76 82 85 92 97 63 74 60 58 61 53 72 88 93 97 98 99 98 99 95 98 99 100 99 99
96 96 99 97 93 89 96 98 97 97 84 52 36 43 53 56 62 69 76 91 100 99 99 99 98 99 97 94 81 78 83 89 79 60 65 74 51 62 67 67 61 57 57 89 92 95 97 97 98 84 95 99 99 99
96 97 99 94 91 94 96 99 97 98 97 91 56 32 38 47 56 70 89 98 100 98 96 97 97 95 95 94 94 90 93 66 60 59 69 69 55 58 61 60 57 55 57 57 54 82 89 98 96 93 96 97 99 98
98 94 97 94 92 93 94 95 98 98 96 90 76 66 28 28 24 73 92 100 100 96 97 98 98 91 94 92 100 99 77 59 54 66 74 72 73 71 70 70 69 68 67 65 62 55 59 90 88 94 95 92 96 99
98 98 96 96 93 96 97 98 97 95 91 88 91 91 41 24 16 56 86 91 99 93 98 98 98 100 87 93 88 63 64 64 65 70 75 78 77 74 70 69 70 71 72 72 70 67 64 51 64 88 84 84 84 94
99 98 96 98 100 100 100 94 89 94 87 90 93 95 57 30 17 24 76 76 72 86 96 96 95 86 83 84 83 74 68 79 82 82 82 83 82 80 79 77 74 71 67 66 72 77 77 69 56 50 62 88 92 91
97 98 97 96 98 99 97 96 89 90 86 92 94 94 95 76 25 16 36 75 75 67 64 70 70 74 83 88 87 85 79 76 74 77 82 85 85 84 80 75 65 54 48 44 48 56 71 77 77 64 53 56 74 93
87 99 96 96 97 98 98 93 90 88 90 94 95 94 91 94 53 36 16 12 19 18 25 28 31 26 21 22 22 19 18 19 18 18 18 18 16 15 12 10 8 5 4 5 7 17 34 50 64 70 74 61 61 81
89 98 99 97 96 99 97 92 89 84 84 86 88 92 94 95 93 53 24 20 22 26 30 28 25 26 27 26 24 19 15 12 10 8 7 5 4 3 3 2 2 2 2 2 2 2 2 6 21 44 60 67 68 66
94 98 98 97 97 96 89 87 85 81 90 86 82 88 86 85 93 76 56 46 42 44 43 38 30 26 28 29 27 22 18 12 7 4 4 3 3 3 3 3 4 4 4 4 3 3 3 2 2 5 23 46 62 71
95 100 97 96 95 92 89 85 79 75 75 75 80 90 94 95 93 94 87 67 56 38 32 33 30 31 32 32 30 17 8 5 4 4 3 3 4 5 6 7 7 7 7 6 6 5 5 4 3 3 4 22 53 68
100 98 96 95 92 86 90 86 79 76 71 69 82 95 95 91 87 83 73 62 48 40 37 35 35 35 30 19 10 8 7 5 3 3 5 6 5 7 10 10 10 10 9 9 8 8 8 7 6 5 4 7 54 79
97 96 93 91 83 78 78 80 73 71 72 76 82 92 91 94 92 79 65 57 45 38 36 34 30 22 19 20 16 10 6 4 4 4 6 8 10 11 10 10 13 18 23 21 20 20 20 17 11 8 6 6 24 96
97 92 87 82 74 72 72 66 67 71 77 81 86 96 97 93 78 62 52 42 35 26 29 39 40 35 26 16 11 7 6 5 5 6 10 12 12 16 22 24 30 32 31 30 32 32 30 29 28 19 10 11 16 74
82 91 80 74 75 75 72 69 71 76 82 92 96 94 92 77 57 55 51 39 42 46 47 47 42 33 23 16 10 8 6 6 6 10 13 19 33 39 38 37 38 38 37 35 34 36 37 36 36 35 18 18 39 49
55 80 78 80 88 80 71 73 73 75 85 93 94 95 90 82 92 92 80 70 68 62 56 49 43 30 17 12 8 8 7 8 11 13 22 32 37 41 42 42 42 39 37 38 41 41 45 47 44 43 27 27 48 68
33 63 78 93 88 80 76 74 85 89 93 94 95 92 89 90 93 82 67 62 60 58 54 43 29 17 10 8 8 9 12 13 18 28 33 34 35 39 41 42 42 43 46 50 56 58 59 58 55 41 29 35 56 79
40 66 82 82 89 84 81 85 94 93 95 94 94 90 86 84 74 69 64 54 41 34 26 17 13 11 9 8 9 14 18 25 32 38 38 36 38 43 45 50 56 61 68 71 74 75 67 50 43 43 49 68 91 100
72 78 82 87 92 90 91 95 94 92 86 87 88 85 81 74 61 49 31 28 22 14 12 12 11 9 9 10 15 19 20 31 40 37 38 47 50 52 55 67 77 83 86 84 80 61 49 50 61 71 94 100 98 99
98 94 96 100 99 97 94 95 92 93 89 86 77 75 71 66 53 38 28 22 14 10 10 9 8 8 11 16 19 24 34 38 40 50 54 54 58 66 79 87 88 86 85 82 70 66 75 92 100 99 100 98 98 97

GFSWCAN_700_rhum_024.txt.gz
RH
65 70 76 86 86 92 85 90 90 91 97 97 96 96 71 25 25 26 25 27 28 32 33 31 26 18 36 90 92 81 85 86 94 100 100 91 85 86 90 86 78 77 81 100 97 99 80 67 70 81 92 89 89 84
70 70 77 87 92 90 88 89 90 96 96 96 97 96 96 58 29 29 29 29 31 33 35 34 33 28 15 74 100 100 98 80 82 91 89 89 84 86 89 99 85 90 82 80 73 68 67 89 86 87 91 90 90 74
80 78 91 100 100 92 92 94 94 95 95 95 96 97 96 92 58 34 32 32 33 36 38 35 25 24 27 16 97 98 98 100 96 88 96 94 88 90 88 89 89 98 92 96 90 75 75 77 79 84 95 89 88 75
90 86 98 100 100 95 96 97 95 94 94 95 95 96 96 95 94 91 40 33 32 28 18 7 11 12 19 24 50 100 100 98 97 100 97 98 94 86 87 87 87 86 86 88 93 94 80 83 85 92 89 83 82 79
98 92 97 97 95 99 97 97 96 95 95 95 96 96 96 95 75 35 24 14 18 30 18 18 30 21 12 27 22 94 96 98 96 100 96 95 95 93 90 89 81 78 74 83 90 88 87 67 74 96 82 85 85 86
96 95 98 96 94 97 97 96 96 96 95 95 96 96 88 43 33 15 13 23 34 51 61 67 65 48 31 34 32 64 95 94 98 99 97 93 90 95 89 99 72 79 84 83 79 87 84 82 78 84 80 87 85 84
98 97 96 96 96 96 96 95 96 96 95 96 96 69 62 45 14 17 43 57 73 87 92 82 90 97 55 34 32 68 100 96 97 98 95 93 88 89 89 88 67 74 80 94 93 95 97 99 87 85 83 75 75 77
97 97 97 96 96 96 96 96 96 95 95 96 72 58 83 89 38 41 65 78 93 100 100 94 96 97 55 45 62 97 98 98 99 98 91 93 95 90 86 65 66 72 82 98 100 100 90 93 99 99 99 90 86 82
100 97 96 96 96 96 96 96 95 96 96 96 56 70 85 88 79 84 86 87 95 97 98 98 100 82 78 68 98 96 98 98 97 98 100 99 96 82 72 70 69 79 83 82 88 84 91 91 88 98 99 92 83 78
99 100 96 96 96 96 96 96 95 96 96 95 40 47 77 82 63 58 80 92 92 97 96 99 98 97 97 98 98 98 98 94 94 96 95 95 85 77 71 73 74 73 70 55 42 49 54 83 94 96 97 94 89 79
35 98 100 95 96 96 96 95 94 93 96 96 81 38 33 35 38 65 88 96 98 99 98 97 98 98 98 97 92 92 95 89 88 92 94 99 80 64 68 68 63 62 50 49 56 59 68 80 96 91 97 93 98 87
5 62 100 99 97 96 96 94 95 94 94 96 95 62 39 35 39 82 93 90 100 98 98 99 99 99 99 99 96 92 99 92 94 95 99 87 67 65 61 56 64 49 57 88 85 71 72 83 88 94 100 100 97 90
7 54 97 99 98 96 96 96 93 94 94 92 95 74 37 45 67 83 94 97 93 98 96 100 99 100 99 93 93 95 90 94 90 98 98 78 70 62 67 65 54 78 92 89 75 75 100 100 100 100 100 94 93 92
6 43 99 98 98 95 95 94 93 93 90 89 91 74 46 62 75 81 86 85 97 92 93 91 96 97 98 97 93 90 92 89 100 100 81 64 67 80 62 62 65 62 60 63 74 74 96 98 99 99 98 98 98 98
11 7 61 92 99 96 95 94 95 93 94 92 86 74 45 45 62 62 65 73 78 95 98 96 94 96 97 97 95 92 97 100 94 68 60 58 76 65 71 74 72 66 63 64 63 64 68 82 98 98 97 97 95 94
17 11 19 100 100 94 94 95 95 92 87 86 80 78 68 57 55 63 34 31 72 89 100 96 98 97 96 97 96 100 94 74 62 61 61 74 78 66 74 75 73 74 73 72 71 70 70 70 65 73 86 89 92 97
23 24 18 97 98 94 96 94 92 90 84 78 74 78 84 87 93 93 91 31 44 98 100 99 97 99 96 98 91 91 76 66 70 65 64 81 80 68 71 75 79 79 78 76 71 68 65 62 64 68 62 58 82 91
27 35 25 44 98 98 94 94 95 95 80 75 78 81 84 91 95 94 96 40 42 100 98 97 100 100 100 100 71 72 78 79 76 71 68 81 83 81 80 83 80 77 73 72 71 67 63 62 57 49 53 62 58 66
28 28 39 27 89 98 98 96 90 89 74 70 73 81 80 91 95 96 95 82 34 98 98 96 96 87 81 78 77 82 84 78 76 70 71 81 90 95 93 88 84 77 72 66 60 55 52 50 49 45 37 40 58 64
32 30 42 34 92 100 98 98 91 84 72 73 72 82 79 84 92 96 96 94 59 38 97 92 75 76 88 81 80 79 84 86 84 78 69 59 51 50 48 47 45 42 38 33 28 21 14 11 10 8 7 8 20 49
42 33 36 24 64 100 99 96 93 84 83 83 81 79 82 81 91 94 96 97 95 40 22 23 48 78 82 87 90 89 85 78 61 48 37 27 22 19 17 16 14 12 10 8 6 4 3 2 2 2 2 2 2 3
44 25 27 28 32 100 96 93 93 88 86 79 74 74 75 74 78 90 94 93 83 72 66 38 32 24 43 58 61 51 42 37 25 24 24 22 18 15 13 12 9 7 5 4 3 2 2 2 2 2 2 2 2 2
33 26 25 24 46 91 84 80 84 80 82 77 71 74 74 74 77 76 79 73 68 78 96 92 65 30 20 23 27 26 28 26 26 27 29 29 28 22 14 8 5 3 3 2 2 2 2 3 3 3 3 3 2 2
36 33 45 58 41 40 52 87 88 80 72 72 74 77 77 76 76 75 65 58 77 85 89 84 65 48 52 52 48 46 46 34 29 30 32 29 17 10 7 4 3 2 2 2 3 3 3 4 3 3 3 3 3 3
70 84 91 94 78 62 52 70 90 87 72 68 75 79 83 77 78 72 59 63 70 64 64 66 72 65 66 48 33 33 35 31 32 33 24 15 12 9 5 3 3 3 3 3 4 4 4 4 4 6 8 8 7 7
94 96 90 75 74 71 62 86 92 80 65 72 83 76 70 75 78 73 67 70 67 70 69 69 73 61 49 41 37 35 34 29 26 26 23 15 9 6 4 4 4 5 4 4 4 6 8 9 10 11 12 14 16 17
94 91 82 82 89 90 84 90 88 85 78 78 76 72 73 82 76 76 74 59 63 55 40 39 41 42 45 49 49 45 37 31 26 22 16 12 8 7 6 4 4 5 5 5 6 6 9 14 18 20 21 22 22 21
62 54 46 50 51 61 94 100 100 99 92 84 80 75 75 80 71 75 85 85 86 59 62 64 68 74 68 64 61 56 46 38 29 19 12 9 8 6 5 5 6 7 8 9 9 10 13 16 18 21 24 28 30 29
38 32 30 31 30 38 41 46 55 69 86 80 66 68 76 72 72 72 79 81 89 93 95 93 86 65 59 61 58 48 40 29 20 12 9 7 7 7 6 8 9 10 9 9 13 16 18 20 24 27 30 31 33 33
49 53 52 49 44 37 32 36 38 50 64 78 74 66 69 69 72 77 80 82 86 91 92 88 86 73 70 61 52 42 30 18 12 10 8 7 8 8 10 11 12 16 19 19 20 26 32 34 35 36 38 40 41 43
38 51 58 52 41 38 38 44 46 40 32 26 25 46 58 62 60 72 70 74 76 77 77 79 77 70 62 51 38 26 19 14 11 8 6 7 9 12 16 21 24 28 34 39 42 43 46 47 48 54 66 72 71 70
39 40 52 53 47 58 62 46 41 37 28 23 30 48 57 65 61 57 52 58 66 72 72 70 67 55 41 34 25 14 10 8 7 7 8 11 17 22 25 32 41 46 49 51 56 60 67 78 81 81 86 88 89 89
56 51 48 60 75 75 76 71 56 48 33 29 39 52 65 71 62 51 49 56 62 61 58 56 48 35 18 9 9 8 6 7 9 13 18 21 25 36 44 47 50 57 62 70 80 85 84 79 81 83 86 86 86 86

GFSWCAN_700_rhum_027.txt.gz
RH
68 71 72 73 74 75 83 96 92 94 99 99 97 96 96 95 88 58 27 26 26 27 29 31 32 32 29 22 96 85 87 90 97 100 97 96 89 84 87 86 94 84 83 99 99 97 86 57 63 79 93 95 88 90
82 82 84 84 90 100 96 95 98 98 97 97 96 96 96 95 95 95 63 30 31 32 33 34 36 35 34 24 23 96 96 82 89 96 95 96 85 86 87 96 87 88 75 81 77 69 68 82 92 88 89 90 87 89
83 86 90 88 100 100 98 94 96 98 97 97 96 96 97 96 96 95 96 96 91 81 62 45 34 32 32 36 35 34 82 92 93 97 100 97 92 84 82 81 85 87 82 86 80 68 70 82 83 86 89 83 88 87
83 84 88 94 99 100 95 95 94 97 98 97 96 96 96 96 95 95 96 93 70 35 28 12 9 20 18 14 16 31 66 98 99 93 96 96 94 87 85 81 79 84 87 86 81 77 80 85 85 88 90 85 85 83
77 82 87 87 95 98 96 95 94 96 97 97 97 96 96 96 94 90 50 22 13 19 16 32 47 47 50 41 19 22 39 98 99 98 99 97 93 93 89 86 82 76 72 78 79 84 84 80 80 83 81 80 83 77
69 83 90 90 92 96 96 96 95 95 96 96 96 96 96 93 76 20 17 30 40 56 63 66 72 81 84 69 50 31 34 86 96 98 100 99 93 92 91 84 69 69 70 68 78 82 79 88 94 78 74 72 82 83
16 58 80 85 90 96 96 96 95 95 96 96 96 95 93 92 78 42 50 68 82 87 90 73 78 87 42 48 47 41 36 57 97 97 98 99 93 93 93 80 67 70 72 69 72 85 84 90 96 98 89 85 79 77
3 17 75 96 94 96 96 96 95 95 95 95 96 95 84 83 86 82 80 86 94 96 84 82 88 96 98 64 46 60 45 44 97 95 98 98 98 98 88 66 62 60 62 64 70 69 78 77 93 97 99 97 96 91
2 3 31 84 96 97 95 95 96 96 95 95 95 95 66 81 76 54 52 78 95 94 85 91 95 87 96 96 98 78 51 92 97 95 98 100 93 90 71 61 69 67 70 70 71 78 74 54 48 80 90 99 99 97
2 2 5 61 87 90 94 95 93 95 95 94 95 95 48 39 39 41 46 84 92 90 92 96 97 97 91 96 98 95 96 94 92 98 99 100 88 76 70 65 68 67 65 68 69 65 50 50 62 79 87 94 99 99
4 3 3 13 67 84 84 88 88 92 94 92 92 95 87 49 41 35 77 93 96 96 95 97 98 98 99 98 99 97 99 97 98 98 98 98 66 58 61 63 68 69 59 59 50 68 68 62 68 76 92 98 94 97
8 6 4 5 35 77 80 82 86 89 88 88 88 85 94 85 34 65 97 100 100 97 96 96 98 98 98 99 97 92 100 92 95 100 99 98 60 62 60 62 55 60 57 50 80 82 70 70 79 84 89 99 99 100
11 10 7 5 24 61 74 83 85 84 83 77 74 85 66 49 56 84 100 100 100 100 96 96 97 94 97 96 96 98 95 99 99 100 97 82 63 67 72 69 63 53 74 86 86 74 79 96 99 100 100 100 100 100
12 12 11 6 12 47 76 76 81 83 79 76 80 81 80 68 86 78 78 88 96 94 96 96 97 98 97 97 97 96 94 86 98 100 72 59 60 73 72 66 66 68 62 63 65 68 72 93 99 99 99 99 98 98
15 13 13 11 8 40 77 78 78 78 79 78 76 82 67 85 83 73 59 58 41 43 70 89 94 97 96 98 97 97 92 100 92 68 69 65 60 77 69 74 76 71 70 68 68 68 69 80 89 90 95 97 96 90
22 19 16 17 10 29 76 78 78 75 74 70 76 80 82 82 89 94 90 86 79 53 65 92 96 98 97 96 95 100 93 78 73 64 60 62 74 75 76 82 76 75 75 73 71 70 65 64 67 71 69 62 69 86
32 27 23 25 26 20 41 68 77 76 74 73 71 75 79 79 81 85 90 90 95 86 58 98 97 98 97 99 97 98 82 81 84 77 70 69 81 73 76 81 82 82 81 78 74 70 66 64 63 60 54 50 56 60
40 40 31 32 37 34 54 82 92 81 65 58 64 70 73 79 81 89 92 95 92 93 56 98 97 99 98 99 87 90 90 88 84 76 73 75 88 84 76 77 83 85 83 79 75 70 65 61 54 49 48 50 46 41
43 46 41 27 34 49 82 91 87 82 55 56 61 71 75 77 81 84 90 97 95 94 84 70 96 92 80 75 78 92 90 87 81 74 74 76 87 94 97 94 92 89 86 81 74 64 53 41 32 23 18 16 19 20
61 54 51 34 33 88 100 98 82 85 76 61 51 63 63 69 74 78 88 98 96 98 98 75 36 69 88 92 86 92 95 93 94 88 83 78 67 55 49 48 52 53 52 46 36 25 16 12 8 6 4 3 3 3
70 65 60 53 34 87 95 79 88 90 85 78 52 52 55 58 65 71 75 80 86 86 74 69 71 41 30 85 95 96 97 98 94 85 79 65 48 36 26 22 20 18 16 14 12 9 7 5 4 3 3 2 2 2
67 72 69 59 50 60 55 59 73 72 79 79 72 49 48 53 58 67 70 67 63 67 80 90 90 94 52 29 48 73 81 77 68 60 50 37 25 24 23 20 19 18 15 11 7 5 3 3 2 2 2 2 2 2
84 87 86 70 48 96 70 54 55 59 85 71 59 50 58 58 58 62 69 57 60 71 83 86 82 86 73 70 39 19 32 43 27 21 22 25 27 28 29 29 27 17 11 8 5 3 2 2 2 2 2 2 2 2
95 96 89 53 52 60 56 53 47 46 56 52 66 71 72 59 60 62 55 60 73 81 73 72 80 79 88 80 34 23 24 30 34 36 40 37 30 30 30 23 15 10 7 4 3 3 3 3 3 4 3 3 2 2
98 98 94 71 48 47 47 49 58 64 64 64 44 65 79 68 66 63 62 75 81 81 76 74 72 77 87 82 66 72 54 35 37 42 36 31 32 31 21 16 14 8 5 3 3 3 3 3 3 3 4 4 4 5
95 94 86 78 66 63 62 76 92 84 74 61 85 86 72 74 71 65 74 76 86 87 81 85 94 91 94 94 84 61 39 34 34 33 30 29 27 26 24 16 9 7 5 4 4 4 4 4 4 5 6 7 8 9
94 76 76 78 77 85 85 80 82 91 93 97 94 89 84 78 67 70 74 71 78 93 69 60 60 68 75 61 51 48 46 43 41 38 35 30 25 21 16 10 7 6 6 5 4 4 5 6 6 6 6 7 8 8
75 68 66 79 83 91 100 100 100 99 96 95 97 93 86 73 64 70 73 76 79 86 95 94 95 92 85 83 68 66 62 54 46 38 31 26 25 17 11 8 7 6 5 5 5 5 5 5 5 5 6 7 10 13
67 65 66 68 71 73 65 65 65 58 60 67 64 58 50 41 43 63 74 78 79 82 94 95 96 96 94 93 80 71 64 56 46 37 26 20 15 14 9 8 7 6 6 5 6 5 6 8 10 12 14 16 20 24
60 62 68 65 57 44 37 40 40 43 46 46 42 36 31 27 39 45 48 55 63 72 83 86 86 86 88 86 84 80 77 64 53 44 31 20 14 10 8 6 6 6 6 6 10 14 16 17 21 27 32 34 37 39
65 66 63 54 42 41 46 52 55 58 53 45 37 30 23 18 12 12 13 33 53 65 69 72 71 69 71 72 71 69 60 49 38 26 16 11 8 6 6 7 9 12 15 18 25 33 40 44 45 45 47 50 54 56
44 44 43 42 36 36 43 46 50 59 59 49 32 22 18 15 10 7 12 36 52 58 64 68 69 72 69 67 64 59 55 39 20 10 7 6 6 8 11 15 20 26 35 45 50 53 53 56 63 70 75 77 77 77
60 52 50 54 49 46 41 45 57 60 56 52 38 23 16 14 10 8 25 53 60 56 55 58 62 63 61 56 43 20 10 8 6 6 6 8 10 13 19 32 46 52 54 55 58 66 74 79 80 72 67 66 66 74

GFSWCAN_700_rhum_030.txt.gz
RH
63 71 77 79 80 81 72 78 84 84 84 91 92 92 89 90 94 96 95 92 38 26 27 28 29 30 30 28 21 52 76 87 99 100 94 86 95 84 83 81 99 97 99 96 100 95 85 61 80 84 83 87 89 82
21 53 73 78 80 85 85 81 85 82 83 87 94 95 93 93 93 87 93 96 81 54 32 34 31 33 33 33 31 33 51 75 84 100 94 93 93 87 90 95 88 97 77 87 74 79 62 67 66 71 88 92 88 87
16 42 66 72 78 79 82 87 91 88 83 83 86 92 93 95 96 96 87 94 93 87 84 79 70 58 46 46 43 42 35 55 90 94 100 97 94 83 82 89 82 82 80 79 73 63 68 81 84 76 81 84 86 86
5 20 61 74 80 83 84 86 88 89 86 84 88 92 93 94 97 96 97 95 94 77 54 40 46 32 25 20 17 20 32 49 84 100 96 98 94 84 81 77 71 72 79 78 73 70 73 75 78 81 80 82 83 78
7 6 27 69 77 79 84 84 85 87 88 86 87 91 93 96 92 68 60 47 35 37 29 46 50 48 52 54 56 52 23 37 94 90 98 99 94 90 85 83 74 66 65 72 75 70 72 77 78 77 83 84 84 82
7 4 4 32 69 77 72 76 89 89 87 89 90 90 94 93 94 67 42 65 78 86 77 66 64 64 50 46 43 58 60 33 67 96 96 98 88 88 89 82 66 66 67 71 76 76 76 78 79 76 74 71 70 70
6 6 3 2 24 68 74 83 90 85 85 90 91 90 95 85 95 95 88 82 92 97 87 62 69 67 61 74 41 38 92 44 47 62 95 97 97 100 98 80 69 67 64 67 71 71 71 76 80 84 91 96 89 79
6 6 4 2 8 55 71 77 81 82 87 87 90 92 94 88 95 71 46 46 86 90 78 76 83 81 82 93 85 57 52 51 55 47 85 95 98 95 96 69 72 70 65 66 70 68 68 61 66 84 91 94 97 96
7 7 6 4 3 20 63 71 72 76 81 84 87 91 93 88 63 40 38 60 94 88 87 94 96 92 91 100 98 90 64 51 65 82 88 97 98 98 80 73 67 62 60 64 72 72 71 67 50 49 50 63 87 96
8 8 8 6 4 10 53 65 68 71 72 76 78 80 92 92 56 63 48 83 93 96 96 98 96 97 97 98 93 97 79 82 58 76 93 94 96 76 69 66 67 65 64 67 72 76 68 62 48 50 63 77 84 90
7 7 7 8 7 7 35 59 58 62 68 67 69 74 84 95 92 48 79 87 93 97 98 96 96 97 99 97 98 96 97 95 98 97 96 94 84 70 69 68 70 69 72 72 68 67 65 77 72 67 65 65 79 97
10 11 8 8 9 6 11 44 58 60 61 62 60 72 78 71 40 75 95 97 99 98 99 96 94 97 99 100 99 100 98 98 97 97 94 89 60 61 61 65 68 69 65 64 62 53 85 72 66 63 84 83 97 100
16 20 20 14 10 9 6 22 53 60 58 55 57 75 72 71 90 96 94 97 97 96 94 91 94 96 97 100 97 97 100 100 100 98 98 80 70 66 68 68 69 66 59 55 78 90 71 75 83 97 97 99 99 100
15 19 23 24 15 11 8 10 39 53 56 58 61 72 79 91 93 94 93 80 78 72 59 52 73 94 96 98 100 100 98 98 100 100 85 71 66 67 76 82 77 68 81 71 71 69 76 75 93 98 98 98 99 99
29 32 32 29 22 14 12 9 19 37 57 60 61 73 67 76 83 86 86 90 89 85 74 53 74 87 95 96 95 96 96 100 97 73 74 68 63 71 79 70 76 72 71 74 76 75 80 81 88 91 94 93 92 96
35 38 36 33 22 18 16 15 12 20 35 57 65 59 64 64 72 77 79 81 84 87 77 68 90 98 97 97 97 100 99 80 74 71 69 64 65 81 77 81 80 80 82 84 83 78 86 88 84 70 63 62 62 60
37 41 41 38 29 28 29 27 29 29 26 42 49 54 55 65 70 76 78 82 84 89 92 88 94 100 95 97 96 100 91 88 89 86 79 72 76 77 81 87 86 93 95 92 84 80 78 73 68 62 52 46 48 50
36 40 45 42 37 35 36 39 44 41 40 36 39 56 59 66 66 70 74 80 82 89 94 99 83 91 96 94 85 96 97 96 96 92 77 76 75 83 76 80 84 87 89 88 84 79 75 72 66 57 44 32 23 19
42 41 44 49 46 35 35 44 57 55 35 44 39 53 62 61 61 67 69 72 76 89 97 99 96 69 53 59 76 89 95 97 97 90 81 75 81 96 97 93 89 87 87 87 84 81 75 67 55 40 25 14 8 5
59 52 52 61 55 39 46 73 75 87 77 53 38 48 62 59 59 52 55 64 70 75 74 77 68 72 83 82 94 96 94 96 96 94 90 84 79 71 64 62 63 64 65 63 58 51 40 27 17 12 8 6 4 4
63 68 70 78 83 61 72 57 62 72 63 46 44 52 50 51 54 44 53 61 62 53 58 67 74 82 94 92 86 54 73 97 98 96 94 91 84 77 59 46 36 29 24 22 19 17 15 13 10 8 6 5 4 3
79 87 86 73 78 90 85 70 65 55 52 48 48 48 42 40 40 53 56 50 45 51 63 65 67 79 88 85 83 49 25 38 82 93 89 80 68 56 43 30 25 24 23 23 22 17 12 8 6 4 3 3 2 2
94 97 94 92 82 91 84 74 80 64 66 60 54 54 44 36 50 66 60 49 54 57 67 73 78 87 89 89 93 65 43 33 31 55 73 72 45 23 23 26 28 30 29 27 23 16 10 6 4 3 3 3 3 3
97 97 97 98 92 93 78 69 68 68 66 57 57 61 58 57 46 50 54 62 75 80 84 83 90 94 90 91 97 96 91 68 22 19 23 23 24 30 38 35 31 30 29 22 15 11 6 4 3 3 3 3 3 3
100 98 98 92 88 85 73 65 64 70 67 63 50 52 79 78 62 68 58 73 66 74 85 86 92 95 95 95 95 96 90 56 59 57 51 50 47 46 36 32 32 27 24 20 15 8 4 4 4 4 4 4 4 4
97 96 91 78 66 68 69 78 75 68 59 65 76 82 77 85 94 80 62 74 71 71 82 71 75 92 94 93 91 95 96 94 85 34 31 32 33 32 31 30 29 28 22 15 10 6 5 5 5 5 4 4 4 4
95 84 70 68 79 83 82 80 77 78 78 84 79 91 97 97 86 68 83 86 81 68 75 88 95 94 94 95 96 94 92 86 78 64 50 46 43 39 34 30 23 21 15 11 8 6 5 5 5 5 5 5 5 4
82 73 65 70 70 74 84 87 97 99 100 92 94 91 96 85 78 95 95 84 70 62 76 84 89 95 97 96 95 96 96 93 90 83 67 58 49 40 29 20 16 14 10 8 7 6 6 6 5 5 5 5 6 6
74 67 68 70 74 74 72 76 85 94 94 94 68 41 35 35 34 32 35 30 23 32 52 66 75 79 88 95 96 96 95 94 88 78 69 62 56 55 35 23 14 11 9 8 6 5 5 5 6 7 9 10 12 13
72 74 82 78 80 73 70 77 69 62 56 52 49 44 37 29 28 27 24 22 16 15 23 34 44 58 70 76 78 77 78 80 79 75 65 60 54 43 28 19 13 9 6 5 5 6 7 8 10 12 15 19 24 27
75 77 75 68 58 53 54 51 46 46 45 40 38 35 29 26 15 15 16 16 14 12 10 15 37 53 60 64 65 65 69 74 72 69 58 50 43 25 13 8 6 6 6 7 9 11 16 23 31 37 41 43 46 45
49 49 50 49 44 44 45 44 44 41 38 35 33 32 33 31 17 11 12 12 10 12 24 41 55 57 57 57 59 62 68 68 67 66 49 20 9 7 7 7 7 9 10 14 23 34 41 44 48 51 55 62 69 73
64 69 72 75 73 68 63 62 53 43 36 36 37 34 30 29 18 10 10 10 10 23 44 52 58 57 56 58 61 62 61 47 22 10 8 8 7 8 9 11 16 27 38 44 47 49 53 58 67 75 79 80 66 47

GFSWCAN_700_rhum_033.txt.gz
RH
4 6 17 27 40 55 61 64 64 68 76 74 79 82 79 77 74 77 82 91 90 79 31 27 28 28 26 22 23 69 70 72 83 95 99 94 81 82 77 84 91 92 93 90 85 82 78 58 80 79 81 81 84 83
3 4 5 16 38 52 58 60 64 73 75 75 76 85 88 86 84 76 72 76 82 84 87 57 30 30 31 31 32 31 39 73 99 81 89 95 83 88 86 76 88 86 82 77 79 77 70 58 79 79 80 78 80 84
4 4 5 10 36 52 56 61 65 72 77 81 78 82 86 87 89 87 80 85 80 74 85 88 75 50 46 56 63 50 36 37 80 94 99 99 96 92 86 85 96 84 80 77 81 62 65 68 62 62 74 76 87 86
4 5 5 6 22 46 55 59 64 68 71 80 84 90 90 89 93 92 79 52 76 83 88 94 88 91 91 93 90 82 53 57 54 56 100 99 92 93 88 81 90 88 82 68 68 67 69 70 72 77 74 75 78 82
5 4 3 3 7 13 39 59 61 64 68 79 86 86 90 95 92 92 47 50 60 83 67 51 50 45 53 50 52 52 50 46 31 38 86 98 92 99 90 84 84 72 66 65 75 79 74 86 82 74 76 76 76 74
6 5 4 3 4 7 15 34 53 62 67 76 85 89 93 92 91 96 95 94 87 95 86 72 71 65 41 44 56 61 45 38 62 37 44 79 99 98 97 90 79 80 62 70 85 70 72 70 74 78 78 74 70 67
7 7 6 5 4 4 3 12 44 57 64 66 76 86 94 90 92 94 84 60 47 91 84 69 69 74 78 81 77 79 58 41 64 78 60 62 74 98 98 94 90 62 58 59 69 70 73 69 64 68 70 76 80 88
9 9 8 7 6 7 5 9 28 51 57 61 64 74 90 90 92 93 90 54 77 91 85 88 95 94 95 96 84 80 52 48 73 89 67 41 62 94 97 78 76 68 71 71 69 68 66 66 64 58 63 70 71 78
10 10 7 8 8 8 8 8 15 34 46 57 58 61 75 93 92 82 70 58 93 91 96 96 96 98 98 100 97 91 78 73 52 68 44 86 100 94 95 86 72 75 71 68 66 67 67 65 64 66 60 48 54 55
8 9 8 8 8 8 8 8 14 30 41 46 49 50 63 80 96 92 63 82 94 97 96 96 96 98 97 99 97 95 99 98 73 64 92 92 61 74 94 87 81 72 69 68 64 73 78 75 67 60 53 47 53 67
10 15 16 11 8 8 9 8 8 10 24 34 41 50 65 80 83 44 85 95 95 96 96 96 98 96 98 96 97 96 96 94 96 91 82 70 64 72 96 93 84 72 72 72 74 74 71 65 68 73 69 64 57 61
15 17 18 20 20 14 9 8 8 8 10 17 34 50 62 59 67 92 95 95 96 96 85 76 70 83 93 98 98 98 98 97 97 97 97 97 83 80 78 82 79 76 74 76 78 78 69 75 81 65 54 61 71 76
12 14 18 20 22 26 20 12 9 9 9 12 32 59 66 70 77 74 83 93 93 87 82 70 59 63 95 97 97 98 99 99 98 100 94 97 87 78 75 74 72 70 72 70 67 64 86 82 78 77 98 97 96 99
14 17 26 26 29 30 30 24 13 10 11 9 27 60 67 65 63 66 74 75 79 82 82 77 68 63 82 95 98 97 97 97 95 95 94 75 73 72 72 77 77 74 69 64 84 93 82 80 85 90 94 98 98 99
24 30 32 33 36 36 33 26 18 14 12 13 21 58 61 60 66 66 67 68 70 73 73 75 73 62 80 94 97 96 98 99 100 82 84 78 72 68 78 84 84 74 79 78 75 80 82 87 83 81 86 89 93 90
29 32 35 37 39 40 37 29 23 18 19 17 19 27 31 43 64 74 74 71 68 69 75 81 85 76 93 98 98 97 97 98 94 88 93 89 79 77 87 80 84 83 81 83 84 82 84 91 80 75 74 70 57 53
25 28 34 37 37 42 40 34 29 26 28 24 23 25 33 34 56 73 73 74 70 67 74 85 92 93 88 97 95 97 92 91 92 92 88 93 90 83 83 90 90 91 92 93 96 96 91 89 81 74 73 63 50 34
23 29 34 36 38 47 45 39 35 32 30 27 31 34 37 40 53 64 66 71 68 69 70 76 83 88 90 90 82 92 98 96 97 97 95 94 94 96 88 92 94 96 98 97 97 96 92 83 78 75 69 57 41 24
31 37 41 42 50 48 52 47 40 36 31 28 31 40 40 42 47 60 66 64 64 71 73 74 71 60 64 73 81 89 79 78 72 94 96 94 90 96 97 95 94 94 94 94 93 90 88 83 78 69 53 35 21 14
46 48 54 73 78 58 62 57 52 47 39 38 39 42 45 41 38 42 47 52 50 55 66 57 47 60 62 67 77 84 96 99 96 89 96 96 88 78 75 76 85 90 84 79 72 66 57 47 37 26 19 15 11 8
55 69 72 91 86 76 76 78 74 64 62 61 56 60 51 48 46 38 37 41 41 40 48 53 55 54 61 64 73 78 72 78 65 77 100 98 89 90 89 84 72 56 47 40 32 26 22 20 18 15 13 10 8 6
54 66 85 97 94 95 91 80 78 71 73 74 72 68 58 52 51 43 40 38 34 37 59 59 66 69 71 72 77 84 87 88 61 40 67 96 97 95 91 80 65 53 41 29 26 26 26 25 22 17 13 9 6 4
81 94 95 96 98 97 92 78 74 67 82 88 75 70 64 56 50 48 48 46 36 57 74 80 81 82 82 84 91 92 92 94 91 54 33 46 72 89 90 79 50 27 24 26 28 28 28 24 19 14 10 6 4 3
96 96 96 96 94 97 93 83 70 74 73 72 78 78 67 62 54 53 47 44 43 75 84 74 69 72 84 92 92 95 91 89 94 78 69 62 32 38 58 56 27 28 36 36 32 30 27 21 16 10 5 4 3 3
99 96 95 97 96 90 70 75 71 71 70 74 74 75 78 73 74 77 62 40 61 92 81 75 77 77 78 88 90 95 97 95 96 95 66 26 19 20 22 23 31 40 38 33 31 28 24 20 13 7 5 4 4 4
98 92 95 94 88 78 71 86 86 76 68 67 70 73 75 87 91 82 63 74 95 96 90 78 79 86 90 92 94 94 94 96 97 96 76 49 39 36 37 35 33 32 32 31 30 26 21 15 9 7 6 5 5 5
98 92 91 82 76 79 86 76 74 80 79 80 81 91 100 97 88 72 74 89 98 94 92 87 76 73 84 92 95 95 96 95 95 95 94 94 88 70 49 44 40 39 33 30 26 20 14 10 8 7 6 6 6 6
85 80 71 76 80 81 87 77 75 80 77 82 84 100 96 88 82 77 85 99 97 92 81 78 70 44 43 78 84 93 95 96 94 93 94 95 94 84 72 61 54 52 47 33 21 14 11 9 8 8 7 6 5 5
78 76 79 83 86 89 87 74 68 69 71 75 79 85 87 74 56 42 35 33 33 33 36 34 23 19 20 45 55 58 79 93 94 94 95 95 95 95 90 76 69 64 53 40 30 20 13 10 7 6 6 6 6 6
82 86 93 91 87 82 72 93 81 73 73 71 66 53 41 32 28 26 23 19 17 16 17 19 18 16 13 13 23 38 57 68 71 74 74 77 80 84 82 76 64 52 40 26 18 12 8 7 7 8 9 9 10 12
88 96 94 93 83 64 63 66 64 65 63 52 45 38 30 26 18 16 15 15 15 15 15 14 14 12 10 10 18 35 48 57 60 65 70 73 74 74 71 68 59 38 20 11 8 8 8 9 10 12 17 24 32 36
78 71 66 57 51 51 54 54 57 59 58 56 50 43 37 32 20 14 12 12 14 13 13 12 11 13 23 36 50 57 57 56 57 62 68 70 70 67 48 23 12 9 8 8 10 12 16 26 35 40 44 46 48 51
61 62 59 56 48 50 53 71 67 65 56 48 41 41 39 38 28 21 13 14 17 16 12 11 13 24 42 54 50 41 48 55 59 59 53 34 16 10 9 8 9 10 12 20 32 39 43 47 51 53 55 61 70 76

GFSWCAN_700_rhum_039.txt.gz
RH
2 2 2 2 2 2 3 6 15 23 35 43 50 57 62 63 62 70 70 70 69 67 72 87 70 34 29 26 33 82 84 88 95 96 91 78 74 70 77 73 76 73 82 86 88 84 81 59 69 76 81 80 73 42
2 2 2 2 2 2 3 4 7 14 30 36 36 46 62 70 72 68 71 72 62 56 58 62 78 82 51 34 26 36 70 98 98 100 100 95 85 85 81 81 78 78 68 68 65 62 65 66 68 64 77 87 87 86
3 2 2 2 2 2 3 3 6 8 11 26 32 39 60 73 75 73 82 80 77 77 62 68 73 85 94 59 32 36 32 31 52 86 92 91 89 94 90 79 77 77 82 80 77 67 71 70 70 68 63 83 83 89
3 2 2 3 3 3 3 3 4 5 6 12 28 42 54 70 72 80 85 82 78 79 84 86 84 95 95 93 41 44 47 53 56 63 55 60 76 68 80 83 81 84 87 83 83 74 67 65 61 63 68 65 71 78
3 3 3 3 3 3 4 4 5 6 8 21 30 35 43 64 74 80 86 86 95 84 89 94 96 96 94 95 96 82 77 87 74 43 39 45 60 63 56 62 83 78 87 95 92 81 69 65 70 67 66 71 75 75
4 3 3 3 4 4 4 4 5 5 6 9 16 26 40 59 76 77 80 86 88 81 91 88 87 96 96 96 90 69 54 55 59 36 29 22 20 41 52 40 30 44 65 77 88 93 82 84 76 76 78 80 82 80
4 4 4 4 4 4 4 4 5 6 6 6 7 13 34 55 73 82 82 79 82 76 73 90 96 95 89 88 83 78 73 71 73 72 60 54 49 40 35 29 30 80 76 76 86 98 74 66 92 88 84 79 76 74
4 4 5 5 6 6 6 7 7 7 6 6 6 12 32 48 67 81 78 76 83 80 86 93 94 94 84 84 76 77 76 75 74 76 70 72 51 43 36 32 29 68 99 100 84 91 95 89 90 84 80 77 66 59
5 5 6 6 7 8 8 8 7 8 8 6 5 12 34 48 53 65 78 86 88 80 84 81 82 80 71 72 78 76 75 78 80 78 81 74 66 67 83 52 73 51 90 98 98 98 98 88 83 79 79 72 66 58
6 6 7 7 9 9 8 9 8 8 7 6 6 7 34 44 47 46 53 74 82 80 76 84 82 75 66 79 92 88 85 91 93 85 93 86 80 96 44 80 98 60 91 96 97 95 98 88 89 86 76 68 61 59
9 10 10 12 14 15 15 14 13 10 9 7 7 9 24 34 32 44 49 59 64 72 60 62 67 67 69 78 94 97 90 96 100 98 97 99 97 96 84 51 50 60 90 96 98 97 93 90 92 88 80 72 63 56
10 13 16 18 21 21 20 19 18 15 11 10 9 8 15 21 21 26 28 40 57 50 50 46 52 55 63 64 80 98 97 97 93 100 97 96 98 95 96 96 97 94 98 98 97 97 97 97 94 85 77 68 62 56
16 19 21 23 22 22 27 27 25 22 18 13 12 10 13 18 14 11 21 33 43 48 51 46 41 41 60 73 71 99 99 96 98 98 98 93 96 98 87 98 97 95 97 97 97 97 97 99 99 88 83 78 74 70
16 18 16 14 13 14 17 26 30 29 24 21 17 13 12 14 14 15 19 26 38 37 39 46 35 40 59 75 95 99 98 100 97 97 98 96 96 97 87 79 92 97 97 98 98 98 98 100 97 86 86 80 78 76
14 14 14 14 12 12 14 19 23 32 32 29 28 15 16 22 20 24 26 28 37 39 36 33 28 31 62 85 92 96 97 96 97 97 98 96 96 98 97 97 100 99 98 100 99 93 95 99 96 86 85 92 86 74
10 12 16 16 13 15 19 22 26 27 34 38 39 24 20 23 29 33 34 38 44 41 43 36 39 44 67 56 87 91 96 97 94 92 95 93 83 88 97 98 94 95 98 99 99 100 99 98 97 95 89 87 83 88
12 13 14 16 16 16 19 22 24 26 29 39 44 33 27 29 34 38 39 44 53 62 66 60 54 50 39 49 57 62 68 57 54 57 64 69 79 74 94 97 97 96 95 95 97 97 96 96 97 95 92 92 90 88
20 20 21 21 20 19 18 19 23 29 32 32 42 50 44 41 41 45 48 46 47 48 48 54 49 45 46 33 30 36 39 40 46 49 56 64 90 92 91 97 98 97 97 97 97 97 97 97 97 97 96 95 92 90
30 27 26 23 20 18 17 19 24 32 36 34 40 56 56 54 51 52 59 52 50 54 53 51 50 38 34 37 36 38 40 40 42 41 51 61 75 95 93 96 96 96 97 96 96 96 96 96 96 94 84 73 62 43
36 33 28 24 20 19 20 26 29 36 42 46 44 57 62 63 68 64 60 56 55 59 53 45 34 37 44 40 39 40 48 59 56 57 59 65 72 75 81 93 97 96 96 96 95 95 95 94 87 64 42 32 28 24
33 28 24 24 22 24 29 36 43 47 50 54 54 59 68 68 64 57 46 49 58 50 46 40 36 44 50 48 56 70 74 74 71 73 71 70 74 79 84 76 93 97 96 94 92 91 89 69 48 36 32 29 27 26
24 25 27 31 31 35 39 47 53 61 69 64 60 57 64 69 54 50 52 47 40 30 28 39 49 47 43 47 70 79 74 74 76 78 80 80 78 79 85 89 78 83 95 98 97 96 82 55 37 31 28 27 27 26
23 24 28 33 41 47 63 72 82 82 84 71 62 80 87 69 56 48 52 41 33 27 43 45 51 73 73 68 72 73 84 86 84 84 80 81 82 88 89 88 92 79 69 82 97 96 94 78 44 30 30 32 32 30
53 70 64 58 69 86 91 86 85 82 74 80 89 92 71 57 51 51 50 37 27 36 45 46 56 71 72 79 81 91 72 60 60 74 81 80 86 97 96 96 98 81 47 42 57 70 83 79 48 29 35 40 36 32
90 92 96 96 98 90 82 80 78 83 79 91 95 72 67 66 69 65 39 26 44 63 55 63 81 98 93 97 95 86 70 59 52 42 37 84 92 95 95 94 98 91 78 70 51 49 52 40 27 36 41 37 33 30
94 93 95 96 99 96 84 82 84 82 80 84 87 73 68 83 75 59 42 44 60 80 100 98 94 99 97 94 84 84 87 84 73 50 30 37 91 96 96 95 96 69 39 27 24 29 35 36 34 35 35 33 29 25
88 71 74 74 60 57 67 69 72 75 84 92 90 85 93 94 77 59 56 60 85 94 94 95 94 88 81 70 60 52 45 43 56 63 42 22 60 94 97 97 95 81 52 39 40 44 48 49 46 47 45 38 30 19
93 81 74 70 70 66 67 70 74 76 76 91 92 86 90 79 66 70 79 86 99 92 72 58 58 60 52 30 22 18 15 18 32 34 28 18 20 65 94 96 97 96 95 92 91 92 89 83 75 72 68 59 42 26
74 61 65 76 78 79 74 75 75 65 65 84 87 83 81 75 71 69 71 74 64 58 53 43 30 24 20 18 18 19 16 14 18 18 16 13 13 17 56 82 92 95 96 96 96 97 95 90 84 79 71 65 52 28
88 86 86 80 80 67 54 71 66 71 83 91 93 84 66 51 50 53 46 44 41 33 30 27 24 24 20 16 15 16 18 15 14 13 12 11 12 20 36 52 67 75 82 93 94 93 88 82 81 78 77 58 25 11
86 92 88 78 58 47 57 69 74 78 74 69 67 64 47 39 29 31 31 32 32 30 26 23 24 22 20 16 25 17 14 14 13 15 27 47 59 62 65 67 67 68 70 72 77 78 78 77 66 38 17 10 9 9
73 70 63 56 54 60 71 69 62 56 51 50 50 49 46 46 41 30 30 33 34 35 30 26 24 19 19 19 43 41 19 17 36 53 51 32 17 24 46 63 65 66 68 68 55 31 13 10 10 10 12 15 22 31
67 75 79 81 75 72 70 71 66 55 42 38 37 40 40 38 31 30 33 37 40 37 34 27 25 19 15 19 46 60 51 39 44 40 18 14 14 14 14 14 12 11 10 11 12 14 19 26 35 42 47 49 51 52

GFSWCAN_700_rhum_042.txt.gz
RH
2 2 2 2 2 2 2 2 4 6 13 20 26 27 35 48 52 54 58 62 62 60 64 69 82 48 32 34 75 94 81 80 97 96 97 84 80 74 79 77 76 74 76 88 91 96 82 56 61 66 73 80 80 50
2 2 2 2 2 2 2 2 2 3 4 6 18 28 36 49 50 55 65 67 69 65 61 59 67 79 79 41 30 66 84 65 77 99 93 95 86 85 82 82 77 81 72 65 65 61 63 70 66 68 63 79 86 73
2 2 2 2 2 2 2 2 2 3 3 9 24 27 34 49 53 61 72 77 83 71 72 72 74 70 84 82 46 32 32 53 60 66 89 91 89 94 94 88 85 82 79 80 79 62 60 65 64 65 67 71 86 89
3 2 2 2 2 2 2 3 3 3 4 5 10 13 30 48 57 66 75 77 74 75 87 92 88 94 97 95 87 46 37 44 43 49 55 55 60 61 59 65 71 72 83 83 81 79 78 72 70 69 66 68 75 85
2 3 3 2 3 3 3 3 3 4 4 6 8 12 26 46 61 67 73 73 75 72 78 85 90 93 95 93 92 94 52 56 73 93 71 52 44 47 44 47 31 37 55 78 83 90 92 85 75 68 67 69 72 69
3 3 3 3 3 3 3 3 3 3 4 5 8 18 39 52 64 68 68 74 71 74 78 85 90 90 90 91 91 81 89 88 86 62 62 53 46 48 45 32 28 27 26 40 86 94 91 95 95 75 80 84 82 81
3 3 3 3 3 3 3 3 3 3 4 4 7 14 37 59 66 70 76 74 73 79 77 82 87 84 72 80 80 77 81 80 76 78 70 68 66 64 55 52 58 40 40 68 62 74 97 83 83 74 75 85 88 84
3 3 4 4 4 4 4 4 4 3 4 4 6 8 12 40 61 79 73 70 74 59 62 72 72 74 63 63 69 75 72 76 74 75 69 74 74 63 60 93 46 52 40 32 94 97 87 92 99 86 84 92 87 82
4 4 4 5 5 6 7 7 6 5 4 4 4 7 8 12 24 48 68 70 58 49 64 63 66 68 63 65 73 75 78 80 77 74 81 82 77 88 100 100 59 90 86 54 86 97 96 86 97 97 98 88 86 82
4 5 5 6 7 7 8 8 8 9 8 7 5 5 6 7 9 13 31 42 51 38 40 42 39 48 53 58 71 79 88 89 89 83 91 89 86 91 99 96 89 73 86 88 96 96 98 98 98 98 91 84 81 80
4 5 6 7 9 11 12 13 12 11 10 10 9 6 6 6 6 8 13 25 23 34 29 31 29 28 39 60 62 81 93 94 98 97 93 98 96 98 97 97 98 59 72 92 96 96 97 96 97 99 89 81 77 73
6 8 9 11 14 18 21 21 20 20 19 15 12 10 8 6 7 8 10 15 26 26 25 20 22 24 36 52 66 98 100 98 93 99 97 96 98 95 96 99 98 93 87 89 94 96 98 100 98 93 87 79 74 67
9 11 13 16 22 20 21 24 25 27 27 24 20 14 12 10 10 10 12 16 26 28 26 21 21 16 33 54 73 100 100 99 98 99 97 96 98 96 95 98 100 98 97 96 97 98 98 99 96 96 88 80 76 71
10 14 19 22 16 13 12 14 19 24 25 27 28 23 15 11 13 15 18 23 27 29 33 24 19 19 39 64 68 88 92 99 97 96 94 88 92 92 90 95 100 100 98 96 97 97 97 97 97 96 92 82 76 75
13 19 20 15 12 13 11 12 15 20 19 25 31 31 15 17 19 22 24 28 26 30 34 36 22 16 40 43 54 65 93 97 94 93 70 70 78 63 80 90 96 100 99 98 97 96 97 97 97 96 95 98 94 86
15 18 17 16 28 28 18 16 19 20 19 25 29 37 34 31 26 27 30 34 33 37 42 40 34 32 35 30 29 55 61 85 72 51 32 43 43 47 64 74 91 96 97 96 95 97 96 97 97 95 91 90 90 86
14 15 14 17 19 16 23 23 20 19 20 25 26 31 32 38 36 37 37 40 44 44 47 45 38 44 33 35 33 39 55 60 50 41 28 41 44 44 51 79 83 93 96 97 96 96 97 97 97 97 98 94 90 90
10 11 12 15 17 17 19 19 19 19 21 25 29 33 36 40 49 48 46 50 53 57 51 51 47 48 43 35 30 32 37 34 31 28 30 40 51 59 58 59 92 95 96 97 97 96 96 96 96 96 96 97 96 94
12 15 17 19 21 20 20 19 18 19 23 30 33 37 42 45 53 54 54 60 71 70 64 58 56 46 40 41 46 38 34 34 33 30 29 42 66 67 69 67 74 93 96 96 96 96 97 98 98 97 96 95 86 63
19 21 25 26 26 25 23 22 21 22 26 31 39 43 47 49 47 53 58 70 70 59 50 46 40 32 32 40 51 44 38 44 46 47 51 60 66 66 72 75 73 76 90 96 96 96 96 96 96 96 94 69 53 42
25 29 32 31 30 27 26 27 26 28 34 40 46 49 56 56 54 54 60 65 62 57 50 45 36 35 38 52 56 51 46 47 61 77 77 70 76 73 66 72 76 76 85 94 96 97 94 95 94 93 77 43 36 33
36 37 36 33 29 27 25 30 35 35 44 50 53 59 60 58 53 55 68 69 61 50 40 34 39 38 39 44 52 59 63 76 88 92 76 75 74 73 69 73 77 81 81 89 94 96 96 96 95 74 53 45 39 32
38 34 30 28 26 27 40 42 45 53 57 59 65 67 61 62 64 67 75 66 51 36 38 43 37 36 40 51 70 74 88 95 94 84 47 42 42 50 76 86 94 92 93 93 97 89 91 96 98 95 80 54 42 38
28 26 24 25 32 41 49 63 65 65 71 71 67 68 71 74 82 86 76 55 37 42 48 48 53 54 66 77 81 96 94 93 89 94 94 86 70 56 33 80 86 96 97 98 98 92 72 71 79 86 83 73 48 32
25 29 29 50 74 78 74 69 71 69 63 68 74 79 92 92 93 83 62 33 41 45 48 53 61 71 87 90 95 97 97 93 87 81 79 65 60 64 48 35 90 89 94 96 99 89 64 56 51 52 58 47 31 35
46 67 86 94 83 79 80 73 62 58 64 74 79 80 80 88 95 78 48 47 46 51 61 95 100 99 97 100 97 96 95 91 70 46 36 26 26 33 35 22 68 96 87 95 97 90 59 49 45 35 30 34 37 38
96 90 89 85 84 76 56 49 54 62 66 69 72 80 99 100 81 62 59 66 70 78 89 77 85 98 93 70 59 61 49 32 21 16 13 12 19 26 23 19 25 91 92 93 89 69 44 37 36 39 47 51 55 58
92 91 86 73 59 60 66 68 67 67 62 62 70 73 80 70 56 61 68 80 87 91 78 63 53 50 49 43 34 27 21 19 18 16 15 17 18 17 17 16 17 48 93 94 97 95 91 81 67 74 82 85 87 83
81 70 65 67 71 78 76 70 66 58 57 68 72 74 76 68 61 58 62 76 61 54 43 36 31 33 29 28 27 25 22 21 20 17 17 16 15 16 14 13 13 15 48 91 96 97 97 96 96 96 98 97 94 84
77 85 87 81 81 74 64 72 67 73 79 80 80 70 55 45 49 58 51 50 46 41 38 34 28 26 22 20 17 18 20 40 59 37 18 15 14 18 21 17 16 19 31 44 64 83 89 94 95 96 96 94 91 87
54 69 81 81 72 62 68 75 68 65 66 61 58 55 47 42 29 30 26 26 30 35 35 33 32 32 26 21 21 17 14 42 58 52 29 24 42 48 52 55 58 62 64 67 69 68 69 73 76 82 86 86 83 67
73 78 81 80 81 82 82 75 70 60 54 52 51 53 53 46 33 25 27 28 26 32 44 39 34 30 30 27 24 20 15 39 51 46 42 47 46 22 14 14 18 28 45 60 66 69 71 73 65 46 20 14 12 13
65 67 69 74 75 77 79 88 78 64 53 48 42 41 41 35 29 16 16 25 38 46 35 29 25 24 26 22 27 24 18 45 38 22 19 16 15 15 16 15 14 12 11 11 11 12 13 16 21 27 33 41 47 50